Time,TemperatureF,DewpointF,PressureIn,WindDirection,WindDirectionDegrees,WindSpeedMPH,WindSpeedGustMPH,Humidity,HourlyPrecipIn,Conditions,Clouds,dailyrainin,SoftwareType,DateUTC
2013-03-18 00:00:00,56.1,15.5,27.94,SE,135,0.0,0.0,20,0.00,CLR,SKC,0.00,WeatherDisplay:10.37,2013-03-18 04:00:00,
2013-03-18 00:05:00,56.1,15.5,27.94,SE,135,0.0,0.0,20,0.00,CLR,SKC,0.00,WeatherDisplay:10.37,2013-03-18 04:05:00,
2013-03-18 00:06:00,56.1,15.5,27.94,SE,135,0.0,0.0,20,0.00,CLR,SKC,0.00,WeatherDisplay:10.37,2013-03-18 04:06:00,
2013-03-18 00:10:00,56.1,14.4,27.94,SE,135,0.0,0.0,19,0.00,CLR,SKC,0.00,WeatherDisplay:10.37,2013-03-18 04:10:00,
2013-03-18 00:11:00,56.1,14.4,27.94,SE,135,0.0,0.0,19,0.00,CLR,SKC,0.00,WeatherDisplay:10.37,2013-03-18 04:11:00,
2013-03-18 00:15:00,55.9,16.5,27.94,SE,135,3.1,0.0,21,0.00,CLR,SKC,0.00,WeatherDisplay:10.37,2013-03-18 04:15:00,
2013-03-18 00:16:00,55.9,16.5,27.94,SE,135,5.8,0.0,21,0.00,CLR,SKC,0.00,WeatherDisplay:10.37,2013-03-18 04:16:00,
2013-03-18 00:20:00,56.3,15.7,27.94,SE,135,0.0,0.0,20,0.00,CLR,SKC,0.00,WeatherDisplay:10.37,2013-03-18 04:20:00,
2013-03-18 00:21:00,56.3,15.7,27.94,SE,135,0.0,0.0,20,0.00,CLR,SKC,0.00,WeatherDisplay:10.37,2013-03-18 04:21:00,
2013-03-18 00:22:00,56.3,15.7,27.94,SE,135,0.0,0.0,20,0.00,CLR,SKC,0.00,WeatherDisplay:10.37,2013-03-18 04:22:00,
2013-03-18 00:26:00,56.7,16.0,27.94,SE,135,3.5,0.0,20,0.00,CLR,SKC,0.00,WeatherDisplay:10.37,2013-03-18 04:26:00,
2013-03-18 00:27:00,56.7,16.0,27.94,SE,135,0.0,0.0,20,0.00,CLR,SKC,0.00,WeatherDisplay:10.37,2013-03-18 04:27:00,
2013-03-18 00:32:00,57.2,15.2,27.93,South,180,0.0,0.0,19,0.00,CLR,SKC,0.00,WeatherDisplay:10.37,2013-03-18 04:32:00,
2013-03-18 00:37:00,57.6,14.3,27.94,SE,135,0.0,0.0,18,0.00,CLR,SKC,0.00,WeatherDisplay:10.37,2013-03-18 04:37:00,
2013-03-18 00:38:00,57.6,14.3,27.94,SE,135,1.1,0.0,18,0.00,CLR,SKC,0.00,WeatherDisplay:10.37,2013-03-18 04:38:00,
2013-03-18 00:42:00,57.7,14.5,27.94,SE,135,2.3,0.0,18,0.00,CLR,SKC,0.00,WeatherDisplay:10.37,2013-03-18 04:42:00,
2013-03-18 00:43:00,57.6,14.3,27.93,SE,135,0.0,0.0,18,0.00,CLR,SKC,0.00,WeatherDisplay:10.37,2013-03-18 04:43:00,
2013-03-18 00:47:00,57.7,14.5,27.94,SE,135,2.3,0.0,18,0.00,CLR,SKC,0.00,WeatherDisplay:10.37,2013-03-18 04:47:00,
2013-03-18 00:48:00,57.9,14.6,27.94,South,180,2.3,2.3,18,0.00,CLR,SKC,0.00,WeatherDisplay:10.37,2013-03-18 04:48:00,
2013-03-18 00:53:00,57.7,14.5,27.94,South,180,1.1,0.0,18,0.00,CLR,SKC,0.00,WeatherDisplay:10.37,2013-03-18 04:53:00,
2013-03-18 00:58:00,57.2,14.0,27.94,West,270,0.0,0.0,18,0.00,CLR,SKC,0.00,WeatherDisplay:10.37,2013-03-18 04:58:00,
2013-03-18 00:59:00,56.8,13.7,27.95,NE,45,0.0,0.0,18,0.00,CLR,SKC,0.00,WeatherDisplay:10.37,2013-03-18 04:59:00,
2013-03-18 01:03:00,56.7,14.8,27.94,NE,45,0.0,0.0,19,0.00,CLR,SKC,0.00,WeatherDisplay:10.37,2013-03-18 05:03:00,
2013-03-18 01:04:00,56.7,14.8,27.94,NE,45,0.0,0.0,19,0.00,CLR,SKC,0.00,WeatherDisplay:10.37,2013-03-18 05:04:00,
2013-03-18 01:08:00,55.2,17.0,27.95,SE,135,0.0,0.0,22,0.00,CLR,SKC,0.00,WeatherDisplay:10.37,2013-03-18 05:08:00,
2013-03-18 01:09:00,55.0,16.8,27.94,SE,135,0.0,0.0,22,0.00,CLR,SKC,0.00,WeatherDisplay:10.37,2013-03-18 05:09:00,
2013-03-18 01:13:00,54.9,19.7,27.94,SE,135,0.0,0.0,25,0.00,CLR,SKC,0.00,WeatherDisplay:10.37,2013-03-18 05:13:00,
2013-03-18 01:14:00,54.9,19.7,27.94,SE,135,0.0,0.0,25,0.00,CLR,SKC,0.00,WeatherDisplay:10.37,2013-03-18 05:14:00,
2013-03-18 01:18:00,54.5,21.2,27.94,SE,135,0.0,0.0,27,0.00,CLR,SKC,0.00,WeatherDisplay:10.37,2013-03-18 05:18:00,
2013-03-18 01:19:00,54.5,21.2,27.93,SE,135,0.0,0.0,27,0.00,CLR,SKC,0.00,WeatherDisplay:10.37,2013-03-18 05:19:00,
2013-03-18 01:23:00,54.9,20.6,27.94,SE,135,0.0,0.0,26,0.00,CLR,SKC,0.00,WeatherDisplay:10.37,2013-03-18 05:23:00,
2013-03-18 01:24:00,54.9,20.6,27.94,SE,135,1.1,0.0,26,0.00,CLR,SKC,0.00,WeatherDisplay:10.37,2013-03-18 05:24:00,
2013-03-18 01:29:00,54.5,20.3,27.94,SE,135,0.0,0.0,26,0.00,CLR,SKC,0.00,WeatherDisplay:10.37,2013-03-18 05:29:00,
2013-03-18 01:30:00,54.5,20.3,27.94,SE,135,0.0,0.0,26,0.00,CLR,SKC,0.00,WeatherDisplay:10.37,2013-03-18 05:30:00,
2013-03-18 01:34:00,54.3,21.0,27.94,SE,135,0.0,0.0,27,0.00,CLR,SKC,0.00,WeatherDisplay:10.37,2013-03-18 05:34:00,
2013-03-18 01:35:00,54.3,21.0,27.94,SE,135,0.0,0.0,27,0.00,CLR,SKC,0.00,WeatherDisplay:10.37,2013-03-18 05:35:00,
2013-03-18 01:39:00,54.3,21.9,27.95,SE,135,0.0,0.0,28,0.00,CLR,SKC,0.00,WeatherDisplay:10.37,2013-03-18 05:39:00,
2013-03-18 01:40:00,54.3,21.9,27.94,SE,135,0.0,0.0,28,0.00,CLR,SKC,0.00,WeatherDisplay:10.37,2013-03-18 05:40:00,
2013-03-18 01:41:00,54.3,21.9,27.94,SE,135,0.0,0.0,28,0.00,CLR,SKC,0.00,WeatherDisplay:10.37,2013-03-18 05:41:00,
2013-03-18 01:44:00,54.1,21.7,27.94,SE,135,0.0,0.0,28,0.00,CLR,SKC,0.00,WeatherDisplay:10.37,2013-03-18 05:44:00,
2013-03-18 01:45:00,54.1,21.7,27.94,SE,135,0.0,0.0,28,0.00,CLR,SKC,0.00,WeatherDisplay:10.37,2013-03-18 05:45:00,
2013-03-18 01:46:00,54.1,21.7,27.95,SE,135,0.0,0.0,28,0.00,CLR,SKC,0.00,WeatherDisplay:10.37,2013-03-18 05:46:00,
2013-03-18 01:49:00,54.1,22.5,27.94,SE,135,0.0,0.0,29,0.00,CLR,SKC,0.00,WeatherDisplay:10.37,2013-03-18 05:49:00,
2013-03-18 01:50:00,54.3,22.7,27.94,SE,135,0.0,0.0,29,0.00,CLR,SKC,0.00,WeatherDisplay:10.37,2013-03-18 05:50:00,
2013-03-18 01:52:00,54.3,23.5,27.94,SE,135,0.0,0.0,30,0.00,CLR,SKC,0.00,WeatherDisplay:10.37,2013-03-18 05:52:00,
2013-03-18 01:54:00,54.3,22.7,27.94,SE,135,0.0,0.0,29,0.00,CLR,SKC,0.00,WeatherDisplay:10.37,2013-03-18 05:54:00,
2013-03-18 01:55:00,54.3,22.7,27.94,SE,135,0.0,0.0,29,0.00,CLR,SKC,0.00,WeatherDisplay:10.37,2013-03-18 05:55:00,
2013-03-18 01:57:00,54.3,22.7,27.94,SE,135,0.0,0.0,29,0.00,CLR,SKC,0.00,WeatherDisplay:10.37,2013-03-18 05:57:00,
2013-03-18 01:59:00,54.1,22.5,27.94,SE,135,0.0,0.0,29,0.00,CLR,SKC,0.00,WeatherDisplay:10.37,2013-03-18 05:59:00,
2013-03-18 02:00:00,54.1,22.5,27.94,SE,135,0.0,0.0,29,0.00,CLR,SKC,0.00,WeatherDisplay:10.37,2013-03-18 06:00:00,
2013-03-18 02:02:00,54.1,22.5,27.94,SE,135,0.0,0.0,29,0.00,CLR,SKC,0.00,WeatherDisplay:10.37,2013-03-18 06:02:00,
2013-03-18 02:04:00,54.1,22.5,27.94,SE,135,0.0,0.0,29,0.00,CLR,SKC,0.00,WeatherDisplay:10.37,2013-03-18 06:04:00,
2013-03-18 02:05:00,54.1,22.5,27.94,SE,135,0.0,0.0,29,0.00,CLR,SKC,0.00,WeatherDisplay:10.37,2013-03-18 06:05:00,
2013-03-18 02:07:00,53.8,23.0,27.94,NE,45,0.0,0.0,30,0.00,CLR,SKC,0.00,WeatherDisplay:10.37,2013-03-18 06:07:00,
2013-03-18 02:09:00,53.6,22.9,27.94,NE,45,0.0,0.0,30,0.00,CLR,SKC,0.00,WeatherDisplay:10.37,2013-03-18 06:09:00,
2013-03-18 02:10:00,53.6,22.9,27.94,NE,45,0.0,0.0,30,0.00,CLR,SKC,0.00,WeatherDisplay:10.37,2013-03-18 06:10:00,
2013-03-18 02:12:00,53.4,22.7,27.94,NE,45,0.0,0.0,30,0.00,CLR,SKC,0.00,WeatherDisplay:10.37,2013-03-18 06:12:00,
2013-03-18 02:14:00,53.2,23.3,27.94,NE,45,0.0,0.0,31,0.00,CLR,SKC,0.00,WeatherDisplay:10.37,2013-03-18 06:14:00,
2013-03-18 02:15:00,53.2,23.3,27.95,NE,45,0.0,0.0,31,0.00,CLR,SKC,0.00,WeatherDisplay:10.37,2013-03-18 06:15:00,
2013-03-18 02:16:00,53.1,23.2,27.95,SE,135,0.0,0.0,31,0.00,CLR,SKC,0.00,WeatherDisplay:10.37,2013-03-18 06:16:00,
2013-03-18 02:17:00,53.1,23.2,27.95,SE,135,0.0,0.0,31,0.00,CLR,SKC,0.00,WeatherDisplay:10.37,2013-03-18 06:17:00,
2013-03-18 02:19:00,52.9,24.5,27.95,SE,135,0.0,0.0,33,0.00,CLR,SKC,0.00,WeatherDisplay:10.37,2013-03-18 06:19:00,
2013-03-18 02:20:00,52.9,24.5,27.95,SE,135,0.0,0.0,33,0.00,CLR,SKC,0.00,WeatherDisplay:10.37,2013-03-18 06:20:00,
2013-03-18 02:21:00,52.9,24.5,27.94,SE,135,0.0,0.0,33,0.00,CLR,SKC,0.00,WeatherDisplay:10.37,2013-03-18 06:21:00,
2013-03-18 02:22:00,52.9,24.5,27.95,SE,135,0.0,0.0,33,0.00,CLR,SKC,0.00,WeatherDisplay:10.37,2013-03-18 06:22:00,
2013-03-18 02:25:00,52.9,24.5,27.94,SE,135,0.0,0.0,33,0.00,CLR,SKC,0.00,WeatherDisplay:10.37,2013-03-18 06:25:00,
2013-03-18 02:26:00,52.9,24.5,27.94,SE,135,0.0,0.0,33,0.00,CLR,SKC,0.00,WeatherDisplay:10.37,2013-03-18 06:26:00,
2013-03-18 02:27:00,52.9,24.5,27.95,North,0,0.0,0.0,33,0.00,CLR,SKC,0.00,WeatherDisplay:10.37,2013-03-18 06:27:00,
2013-03-18 02:30:00,52.9,25.2,27.95,South,180,0.0,0.0,34,0.00,CLR,SKC,0.00,WeatherDisplay:10.37,2013-03-18 06:30:00,
2013-03-18 02:31:00,53.1,26.8,27.94,SE,135,0.0,0.7,36,0.00,CLR,SKC,0.00,WeatherDisplay:10.37,2013-03-18 06:31:00,
2013-03-18 02:33:00,53.4,27.1,27.94,SE,135,1.1,0.0,36,0.00,CLR,SKC,0.00,WeatherDisplay:10.37,2013-03-18 06:33:00,
2013-03-18 02:35:00,53.8,27.4,27.95,SE,135,1.1,0.0,36,0.00,CLR,SKC,0.00,WeatherDisplay:10.37,2013-03-18 06:35:00,
2013-03-18 02:36:00,54.3,27.9,27.95,South,180,8.1,8.1,36,0.00,CLR,SKC,0.00,WeatherDisplay:10.37,2013-03-18 06:36:00,
2013-03-18 02:38:00,54.7,26.8,27.95,SE,135,4.6,0.0,34,0.00,CLR,SKC,0.00,WeatherDisplay:10.37,2013-03-18 06:38:00,
2013-03-18 02:40:00,55.0,25.7,27.94,SE,135,0.0,0.0,32,0.00,CLR,SKC,0.00,WeatherDisplay:10.37,2013-03-18 06:40:00,
2013-03-18 02:42:00,55.4,26.0,27.94,SSE,158,0.0,0.0,32,0.00,CLR,SKC,0.00,WeatherDisplay:10.37,2013-03-18 06:42:00,
2013-03-18 02:43:00,55.6,26.2,27.94,SE,135,0.0,3.1,32,0.00,CLR,SKC,0.00,WeatherDisplay:10.37,2013-03-18 06:43:00,
2013-03-18 02:45:00,55.9,25.7,27.95,SE,135,6.9,6.9,31,0.00,CLR,SKC,0.00,WeatherDisplay:10.37,2013-03-18 06:45:00,
2013-03-18 02:47:00,56.1,25.1,27.94,SE,135,3.5,3.5,30,0.00,CLR,SKC,0.00,WeatherDisplay:10.37,2013-03-18 06:47:00,
2013-03-18 02:48:00,56.3,25.2,27.94,SE,135,2.3,3.1,30,0.00,CLR,SKC,0.00,WeatherDisplay:10.37,2013-03-18 06:48:00,
2013-03-18 02:50:00,56.7,23.9,27.94,SE,135,5.8,0.0,28,0.00,CLR,SKC,0.00,WeatherDisplay:10.37,2013-03-18 06:50:00,
2013-03-18 02:51:00,56.7,23.9,27.94,SE,135,5.8,0.0,28,0.00,CLR,SKC,0.00,WeatherDisplay:10.37,2013-03-18 06:51:00,
2013-03-18 02:52:00,56.7,23.9,27.93,SE,135,5.8,5.8,28,0.00,CLR,SKC,0.00,WeatherDisplay:10.37,2013-03-18 06:52:00,
2013-03-18 02:54:00,56.7,23.9,27.94,South,180,5.4,5.4,28,0.00,CLR,SKC,0.00,WeatherDisplay:10.37,2013-03-18 06:54:00,
2013-03-18 02:55:00,56.8,24.0,27.94,SE,135,5.8,5.8,28,0.00,CLR,SKC,0.00,WeatherDisplay:10.37,2013-03-18 06:55:00,
2013-03-18 02:56:00,56.7,23.9,27.94,SE,135,5.8,5.8,28,0.00,CLR,SKC,0.00,WeatherDisplay:10.37,2013-03-18 06:56:00,
2013-03-18 02:57:00,56.7,23.9,27.94,SSE,158,3.5,3.5,28,0.00,CLR,SKC,0.00,WeatherDisplay:10.37,2013-03-18 06:57:00,
2013-03-18 02:59:00,56.8,24.9,27.94,SW,225,4.6,4.6,29,0.00,CLR,SKC,0.00,WeatherDisplay:10.37,2013-03-18 06:59:00,
2013-03-18 03:00:00,56.8,24.9,27.95,South,180,6.9,6.9,29,0.00,CLR,SKC,0.00,WeatherDisplay:10.37,2013-03-18 07:00:00,
2013-03-18 03:01:00,56.8,24.9,27.95,South,180,6.9,6.9,29,0.00,CLR,SKC,0.00,WeatherDisplay:10.37,2013-03-18 07:01:00,
2013-03-18 03:02:00,56.8,24.9,27.95,South,180,6.9,6.9,29,0.00,CLR,SKC,0.00,WeatherDisplay:10.37,2013-03-18 07:02:00,
2013-03-18 03:04:00,56.8,24.9,27.94,South,180,6.9,6.9,29,0.00,CLR,SKC,0.00,WeatherDisplay:10.37,2013-03-18 07:04:00,
2013-03-18 03:05:00,56.8,24.9,27.94,South,180,6.9,6.9,29,0.00,CLR,SKC,0.00,WeatherDisplay:10.37,2013-03-18 07:05:00,
2013-03-18 03:06:00,56.8,24.9,27.95,South,180,6.9,6.9,29,0.00,CLR,SKC,0.00,WeatherDisplay:10.37,2013-03-18 07:06:00,
2013-03-18 03:07:00,56.8,24.9,27.95,South,180,6.9,6.9,29,0.00,CLR,SKC,0.00,WeatherDisplay:10.37,2013-03-18 07:07:00,
2013-03-18 03:09:00,56.3,22.7,27.95,South,180,6.9,0.0,27,0.00,CLR,SKC,0.00,WeatherDisplay:10.37,2013-03-18 07:09:00,
2013-03-18 03:10:00,55.9,22.4,27.95,East,90,1.1,0.0,27,0.00,CLR,SKC,0.00,WeatherDisplay:10.37,2013-03-18 07:10:00,
2013-03-18 03:13:00,55.4,24.4,27.94,SE,135,1.1,0.0,30,0.00,CLR,SKC,0.00,WeatherDisplay:10.37,2013-03-18 07:13:00,
2013-03-18 03:14:00,55.2,25.1,27.94,SE,135,2.3,2.3,31,0.00,CLR,SKC,0.00,WeatherDisplay:10.37,2013-03-18 07:14:00,
2013-03-18 03:16:00,55.2,25.8,27.95,ENE,68,5.8,0.0,32,0.00,CLR,SKC,0.00,WeatherDisplay:10.37,2013-03-18 07:16:00,
2013-03-18 03:18:00,55.0,24.9,27.95,SE,135,0.0,0.0,31,0.00,CLR,SKC,0.00,WeatherDisplay:10.37,2013-03-18 07:18:00,
2013-03-18 03:19:00,55.0,25.7,27.94,ENE,68,2.3,0.0,32,0.00,CLR,SKC,0.00,WeatherDisplay:10.37,2013-03-18 07:19:00,
2013-03-18 03:21:00,55.2,27.3,27.94,SE,135,4.6,4.6,34,0.00,CLR,SKC,0.00,WeatherDisplay:10.37,2013-03-18 07:21:00,
2013-03-18 03:23:00,55.6,27.6,27.95,SE,135,4.6,0.0,34,0.00,CLR,SKC,0.00,WeatherDisplay:10.37,2013-03-18 07:23:00,
2013-03-18 03:25:00,55.9,27.2,27.94,SE,135,3.5,0.0,33,0.00,CLR,SKC,0.00,WeatherDisplay:10.37,2013-03-18 07:25:00,
2013-03-18 03:26:00,55.9,26.5,27.94,South,180,4.6,4.6,32,0.00,CLR,SKC,0.00,WeatherDisplay:10.37,2013-03-18 07:26:00,
2013-03-18 03:28:00,56.1,26.6,27.94,SE,135,5.8,5.8,32,0.00,CLR,SKC,0.00,WeatherDisplay:10.37,2013-03-18 07:28:00,
2013-03-18 03:30:00,56.5,26.9,27.94,SE,135,5.8,5.8,32,0.00,CLR,SKC,0.00,WeatherDisplay:10.37,2013-03-18 07:30:00,
2013-03-18 03:33:00,56.8,25.7,27.94,SE,135,4.6,4.6,30,0.00,CLR,SKC,0.00,WeatherDisplay:10.37,2013-03-18 07:33:00,
2013-03-18 03:35:00,56.8,24.9,27.94,SE,135,4.6,4.6,29,0.00,CLR,SKC,0.00,WeatherDisplay:10.37,2013-03-18 07:35:00,
2013-03-18 03:38:00,57.0,25.9,27.94,SE,135,4.6,4.6,30,0.00,CLR,SKC,0.00,WeatherDisplay:10.37,2013-03-18 07:38:00,
2013-03-18 03:39:00,57.0,25.0,27.93,SE,135,4.6,4.6,29,0.00,CLR,SKC,0.00,WeatherDisplay:10.37,2013-03-18 07:39:00,
2013-03-18 03:40:00,57.0,25.0,27.93,SE,135,3.5,3.5,29,0.00,CLR,SKC,0.00,WeatherDisplay:10.37,2013-03-18 07:40:00,
2013-03-18 03:43:00,57.0,25.9,27.93,South,180,6.9,6.9,30,0.00,CLR,SKC,0.00,WeatherDisplay:10.37,2013-03-18 07:43:00,
2013-03-18 03:44:00,57.0,25.9,27.93,SE,135,6.9,6.9,30,0.00,CLR,SKC,0.00,WeatherDisplay:10.37,2013-03-18 07:44:00,
2013-03-18 03:45:00,57.0,25.9,27.93,ENE,68,4.6,4.6,30,0.00,CLR,SKC,0.00,WeatherDisplay:10.37,2013-03-18 07:45:00,
2013-03-18 03:48:00,57.0,26.6,27.93,SE,135,3.5,3.5,31,0.00,CLR,SKC,0.00,WeatherDisplay:10.37,2013-03-18 07:48:00,
2013-03-18 03:49:00,57.0,26.6,27.93,South,180,3.5,3.5,31,0.00,CLR,SKC,0.00,WeatherDisplay:10.37,2013-03-18 07:49:00,
2013-03-18 03:50:00,57.2,26.8,27.92,SE,135,5.8,5.8,31,0.00,CLR,SKC,0.00,WeatherDisplay:10.37,2013-03-18 07:50:00,
2013-03-18 03:54:00,57.6,27.1,27.92,SSE,158,10.4,10.4,31,0.00,CLR,SKC,0.00,WeatherDisplay:10.37,2013-03-18 07:54:00,
2013-03-18 03:55:00,57.7,26.5,27.92,South,180,10.4,10.4,30,0.00,CLR,SKC,0.00,WeatherDisplay:10.37,2013-03-18 07:55:00,
2013-03-18 03:59:00,57.9,26.6,27.92,SE,135,9.2,9.2,30,0.00,CLR,SKC,0.00,WeatherDisplay:10.37,2013-03-18 07:59:00,
2013-03-18 04:00:00,57.9,26.6,27.92,SE,135,9.2,9.2,30,0.00,CLR,SKC,0.00,WeatherDisplay:10.37,2013-03-18 08:00:00,
2013-03-18 04:04:00,57.9,26.6,27.92,SE,135,9.2,9.2,30,0.00,CLR,SKC,0.00,WeatherDisplay:10.37,2013-03-18 08:04:00,
2013-03-18 04:05:00,57.9,26.6,27.91,SE,135,9.2,9.2,30,0.00,CLR,SKC,0.00,WeatherDisplay:10.37,2013-03-18 08:05:00,
2013-03-18 04:09:00,58.5,25.4,27.92,SE,135,9.2,9.2,28,0.00,CLR,SKC,0.00,WeatherDisplay:10.37,2013-03-18 08:09:00,
2013-03-18 04:10:00,58.5,25.4,27.92,SE,135,8.1,8.1,28,0.00,CLR,SKC,0.00,WeatherDisplay:10.37,2013-03-18 08:10:00,
2013-03-18 04:14:00,58.5,25.4,27.92,South,180,5.8,5.8,28,0.00,CLR,SKC,0.00,WeatherDisplay:10.37,2013-03-18 08:14:00,
2013-03-18 04:15:00,58.6,25.6,27.92,ENE,68,9.2,9.2,28,0.00,CLR,SKC,0.00,WeatherDisplay:10.37,2013-03-18 08:15:00,
2013-03-18 04:19:00,58.6,24.7,27.92,SE,135,10.4,10.4,27,0.00,CLR,SKC,0.00,WeatherDisplay:10.37,2013-03-18 08:19:00,
2013-03-18 04:20:00,58.6,24.7,27.92,SE,135,9.2,9.2,27,0.00,CLR,SKC,0.00,WeatherDisplay:10.37,2013-03-18 08:20:00,
2013-03-18 04:21:00,58.6,24.7,27.92,South,180,9.2,9.2,27,0.00,CLR,SKC,0.00,WeatherDisplay:10.37,2013-03-18 08:21:00,
2013-03-18 04:25:00,58.5,25.4,27.92,SE,135,10.4,10.4,28,0.00,CLR,SKC,0.00,WeatherDisplay:10.37,2013-03-18 08:25:00,
2013-03-18 04:26:00,58.5,25.4,27.92,SE,135,6.9,6.9,28,0.00,CLR,SKC,0.00,WeatherDisplay:10.37,2013-03-18 08:26:00,
2013-03-18 04:30:00,58.5,25.4,27.92,SE,135,5.8,5.8,28,0.00,CLR,SKC,0.00,WeatherDisplay:10.37,2013-03-18 08:30:00,
2013-03-18 04:31:00,58.3,26.1,27.93,SE,135,6.9,6.9,29,0.00,CLR,SKC,0.00,WeatherDisplay:10.37,2013-03-18 08:31:00,
2013-03-18 04:35:00,58.5,26.3,27.93,SE,135,5.8,5.8,29,0.00,CLR,SKC,0.00,WeatherDisplay:10.37,2013-03-18 08:35:00,
2013-03-18 04:37:00,58.5,26.3,27.93,SSW,202,6.9,6.9,29,0.00,CLR,SKC,0.00,WeatherDisplay:10.37,2013-03-18 08:37:00,
2013-03-18 04:40:00,58.6,26.4,27.93,SE,135,18.4,18.4,29,0.00,CLR,SKC,0.00,WeatherDisplay:10.37,2013-03-18 08:40:00,
2013-03-18 04:42:00,58.6,26.4,27.92,SSW,202,9.2,9.2,29,0.00,CLR,SKC,0.00,WeatherDisplay:10.37,2013-03-18 08:42:00,
2013-03-18 04:45:00,58.6,26.4,27.92,SE,135,12.7,12.7,29,0.00,CLR,SKC,0.00,WeatherDisplay:10.37,2013-03-18 08:45:00,
2013-03-18 04:47:00,58.8,26.6,27.92,SE,135,6.9,6.9,29,0.00,CLR,SKC,0.00,WeatherDisplay:10.37,2013-03-18 08:47:00,
2013-03-18 04:50:00,58.8,26.6,27.92,SE,135,5.8,5.8,29,0.00,CLR,SKC,0.00,WeatherDisplay:10.37,2013-03-18 08:50:00,
2013-03-18 04:51:00,58.8,26.6,27.92,SE,135,5.8,5.8,29,0.00,CLR,SKC,0.00,WeatherDisplay:10.37,2013-03-18 08:51:00,
2013-03-18 04:52:00,58.8,27.4,27.92,SE,135,6.9,6.9,30,0.00,CLR,SKC,0.00,WeatherDisplay:10.37,2013-03-18 08:52:00,
2013-03-18 04:55:00,58.6,27.3,27.92,SE,135,9.8,9.8,30,0.00,CLR,SKC,0.00,WeatherDisplay:10.37,2013-03-18 08:55:00,
2013-03-18 04:56:00,58.6,27.3,27.92,SE,135,10.4,10.4,30,0.00,CLR,SKC,0.00,WeatherDisplay:10.37,2013-03-18 08:56:00,
2013-03-18 04:57:00,58.6,27.3,27.93,South,180,10.4,10.4,30,0.00,CLR,SKC,0.00,WeatherDisplay:10.37,2013-03-18 08:57:00,
2013-03-18 05:00:00,58.5,27.1,27.93,SSE,158,4.6,4.6,30,0.00,CLR,SKC,0.00,WeatherDisplay:10.37,2013-03-18 09:00:00,
2013-03-18 05:01:00,58.5,27.1,27.93,SSE,158,4.6,4.6,30,0.00,CLR,SKC,0.00,WeatherDisplay:10.37,2013-03-18 09:01:00,
2013-03-18 05:02:00,58.5,27.1,27.92,SSE,158,4.6,4.6,30,0.00,CLR,SKC,0.00,WeatherDisplay:10.37,2013-03-18 09:02:00,
2013-03-18 05:03:00,58.5,27.1,27.92,SSE,158,4.6,4.6,30,0.00,CLR,SKC,0.00,WeatherDisplay:10.37,2013-03-18 09:03:00,
2013-03-18 05:06:00,58.5,27.1,27.92,SSE,158,4.6,4.6,30,0.00,CLR,SKC,0.00,WeatherDisplay:10.37,2013-03-18 09:06:00,
2013-03-18 05:07:00,58.5,27.1,27.92,SSE,158,4.6,4.6,30,0.00,CLR,SKC,0.00,WeatherDisplay:10.37,2013-03-18 09:07:00,
2013-03-18 05:08:00,58.5,27.1,27.92,SE,135,4.6,4.6,30,0.00,CLR,SKC,0.00,WeatherDisplay:10.37,2013-03-18 09:08:00,
2013-03-18 05:12:00,58.3,26.9,27.92,SE,135,5.8,5.8,30,0.00,CLR,SKC,0.00,WeatherDisplay:10.37,2013-03-18 09:12:00,
2013-03-18 05:13:00,58.3,26.9,27.92,SE,135,5.8,5.8,30,0.00,CLR,SKC,0.00,WeatherDisplay:10.37,2013-03-18 09:13:00,
2013-03-18 05:18:00,58.5,26.3,27.92,SE,135,8.1,8.1,29,0.00,CLR,SKC,0.00,WeatherDisplay:10.37,2013-03-18 09:18:00,
2013-03-18 05:23:00,58.3,26.9,27.92,SE,135,3.5,3.5,30,0.00,CLR,SKC,0.00,WeatherDisplay:10.37,2013-03-18 09:23:00,
2013-03-18 05:28:00,58.3,26.1,27.92,SE,135,6.9,6.9,29,0.00,CLR,SKC,0.00,WeatherDisplay:10.37,2013-03-18 09:28:00,
2013-03-18 05:33:00,58.3,26.1,27.92,SE,135,9.2,9.2,29,0.00,CLR,SKC,0.00,WeatherDisplay:10.37,2013-03-18 09:33:00,
2013-03-18 05:34:00,58.3,26.1,27.92,SE,135,9.2,9.2,29,0.00,CLR,SKC,0.00,WeatherDisplay:10.37,2013-03-18 09:34:00,
2013-03-18 05:38:00,58.3,26.1,27.92,SE,135,12.7,12.7,29,0.00,CLR,SKC,0.00,WeatherDisplay:10.37,2013-03-18 09:38:00,
2013-03-18 05:39:00,58.3,26.1,27.92,SE,135,9.2,9.2,29,0.00,CLR,SKC,0.00,WeatherDisplay:10.37,2013-03-18 09:39:00,
2013-03-18 05:43:00,58.1,26.0,27.92,SE,135,8.1,8.1,29,0.00,CLR,SKC,0.00,WeatherDisplay:10.37,2013-03-18 09:43:00,
2013-03-18 05:44:00,58.1,26.0,27.92,SE,135,8.1,8.1,29,0.00,CLR,SKC,0.00,WeatherDisplay:10.37,2013-03-18 09:44:00,
2013-03-18 05:48:00,58.1,26.0,27.92,SW,225,9.2,9.2,29,0.00,CLR,SKC,0.00,WeatherDisplay:10.37,2013-03-18 09:48:00,
2013-03-18 05:49:00,58.1,26.0,27.92,SE,135,10.4,10.4,29,0.00,CLR,SKC,0.00,WeatherDisplay:10.37,2013-03-18 09:49:00,
2013-03-18 05:53:00,57.9,26.6,27.92,ENE,68,10.4,10.4,30,0.00,CLR,SKC,0.00,WeatherDisplay:10.37,2013-03-18 09:53:00,
2013-03-18 05:54:00,57.9,27.4,27.92,SE,135,10.4,10.4,31,0.00,CLR,SKC,0.00,WeatherDisplay:10.37,2013-03-18 09:54:00,
2013-03-18 05:58:00,56.7,30.0,27.92,SE,135,9.2,9.2,36,0.01,RA,SKC,0.01,WeatherDisplay:10.37,2013-03-18 09:58:00,
2013-03-18 05:59:00,56.7,30.0,27.92,SE,135,9.2,9.2,36,0.01,RA,SKC,0.01,WeatherDisplay:10.37,2013-03-18 09:59:00,
2013-03-18 06:00:00,56.7,30.7,27.93,SSE,158,9.2,9.2,37,0.01,RA,SKC,0.01,WeatherDisplay:10.37,2013-03-18 10:00:00,
2013-03-18 06:04:00,56.7,30.7,27.92,SSE,158,8.1,8.1,37,0.01,RA,SKC,0.01,WeatherDisplay:10.37,2013-03-18 10:04:00,
2013-03-18 06:05:00,56.7,30.7,27.92,SSE,158,8.1,8.1,37,0.01,RA,SKC,0.01,WeatherDisplay:10.37,2013-03-18 10:05:00,
2013-03-18 06:09:00,55.8,32.4,27.92,SE,135,9.2,9.2,41,0.01,CLR,SKC,0.01,WeatherDisplay:10.37,2013-03-18 10:09:00,
2013-03-18 06:10:00,55.8,33.0,27.93,SE,135,9.2,9.2,42,0.01,CLR,SKC,0.01,WeatherDisplay:10.37,2013-03-18 10:10:00,
2013-03-18 06:14:00,55.2,34.2,27.93,SE,135,8.1,8.1,45,0.02,RA,SKC,0.02,WeatherDisplay:10.37,2013-03-18 10:14:00,
2013-03-18 06:15:00,55.2,34.2,27.92,SE,135,8.1,8.1,45,0.02,RA,SKC,0.02,WeatherDisplay:10.37,2013-03-18 10:15:00,
2013-03-18 06:17:00,55.0,34.6,27.93,SE,135,6.9,6.9,46,0.02,RA,SKC,0.02,WeatherDisplay:10.37,2013-03-18 10:17:00,
2013-03-18 06:19:00,55.0,34.6,27.93,SE,135,8.1,8.1,46,0.02,RA,SKC,0.02,WeatherDisplay:10.37,2013-03-18 10:19:00,
2013-03-18 06:20:00,55.0,34.6,27.93,SE,135,8.1,8.1,46,0.02,RA,SKC,0.02,WeatherDisplay:10.37,2013-03-18 10:20:00,
2013-03-18 06:22:00,55.2,34.2,27.92,ENE,68,9.2,9.2,45,0.02,,SKC,0.02,WeatherDisplay:10.37,2013-03-18 10:22:00,
2013-03-18 06:24:00,55.2,33.7,27.93,SE,135,8.1,8.1,44,0.02,CLR,SKC,0.02,WeatherDisplay:10.37,2013-03-18 10:24:00,
2013-03-18 06:25:00,55.2,34.2,27.93,SE,135,8.1,8.1,45,0.02,CLR,SKC,0.02,WeatherDisplay:10.37,2013-03-18 10:25:00,
2013-03-18 06:27:00,55.2,33.7,27.93,SE,135,5.8,5.8,44,0.02,CLR,SKC,0.02,WeatherDisplay:10.37,2013-03-18 10:27:00,
2013-03-18 06:29:00,55.2,33.7,27.93,West,270,5.8,5.8,44,0.02,CLR,SKC,0.02,WeatherDisplay:10.37,2013-03-18 10:29:00,
2013-03-18 06:30:00,55.2,33.7,27.93,SE,135,5.8,5.8,44,0.02,CLR,SKC,0.02,WeatherDisplay:10.37,2013-03-18 10:30:00,
2013-03-18 06:32:00,55.2,34.2,27.92,South,180,4.6,5.4,45,0.02,CLR,SKC,0.02,WeatherDisplay:10.37,2013-03-18 10:32:00,
2013-03-18 06:34:00,55.2,33.7,27.93,South,180,9.2,9.2,44,0.02,CLR,SKC,0.02,WeatherDisplay:10.37,2013-03-18 10:34:00,
2013-03-18 06:35:00,55.2,34.2,27.93,SE,135,8.1,8.1,45,0.02,CLR,SKC,0.02,WeatherDisplay:10.37,2013-03-18 10:35:00,
2013-03-18 06:37:00,55.2,34.2,27.93,South,180,8.1,8.1,45,0.02,CLR,SKC,0.02,WeatherDisplay:10.37,2013-03-18 10:37:00,
2013-03-18 06:39:00,55.2,33.7,27.92,SSE,158,10.4,10.4,44,0.02,CLR,SKC,0.02,WeatherDisplay:10.37,2013-03-18 10:39:00,
2013-03-18 06:40:00,55.2,33.7,27.92,South,180,10.4,10.4,44,0.02,CLR,SKC,0.02,WeatherDisplay:10.37,2013-03-18 10:40:00,
2013-03-18 06:41:00,55.2,33.7,27.92,SE,135,10.4,10.4,44,0.02,CLR,SKC,0.02,WeatherDisplay:10.37,2013-03-18 10:41:00,
2013-03-18 06:42:00,55.0,33.5,27.92,South,180,10.4,10.4,44,0.02,CLR,SKC,0.02,WeatherDisplay:10.37,2013-03-18 10:42:00,
2013-03-18 06:44:00,55.2,33.1,27.92,SE,135,11.5,11.5,43,0.02,CLR,SKC,0.02,WeatherDisplay:10.37,2013-03-18 10:44:00,
2013-03-18 06:45:00,55.2,33.1,27.92,SE,135,12.7,12.7,43,0.02,CLR,SKC,0.02,WeatherDisplay:10.37,2013-03-18 10:45:00,
2013-03-18 06:46:00,55.2,33.1,27.92,SE,135,10.4,10.4,43,0.02,CLR,SKC,0.02,WeatherDisplay:10.37,2013-03-18 10:46:00,
2013-03-18 06:47:00,55.0,32.9,27.92,SE,135,10.4,10.4,43,0.02,CLR,SKC,0.02,WeatherDisplay:10.37,2013-03-18 10:47:00,
2013-03-18 06:50:00,55.0,33.5,27.92,SE,135,12.7,12.7,44,0.02,CLR,SKC,0.02,WeatherDisplay:10.37,2013-03-18 10:50:00,
2013-03-18 06:51:00,55.0,32.9,27.92,SE,135,12.7,12.7,43,0.02,CLR,SKC,0.02,WeatherDisplay:10.37,2013-03-18 10:51:00,
2013-03-18 06:53:00,55.0,32.9,27.92,ENE,68,10.4,10.4,43,0.02,CLR,SKC,0.02,WeatherDisplay:10.37,2013-03-18 10:53:00,
2013-03-18 06:55:00,55.0,32.9,27.93,SE,135,17.3,17.3,43,0.02,CLR,SKC,0.02,WeatherDisplay:10.37,2013-03-18 10:55:00,
2013-03-18 06:56:00,55.0,32.9,27.92,SE,135,12.7,12.7,43,0.01,CLR,SKC,0.02,WeatherDisplay:10.37,2013-03-18 10:56:00,
2013-03-18 06:57:00,55.0,32.9,27.92,SE,135,12.7,12.7,43,0.01,CLR,SKC,0.02,WeatherDisplay:10.37,2013-03-18 10:57:00,
2013-03-18 06:58:00,55.0,33.5,27.92,SE,135,13.8,13.8,44,0.01,CLR,SKC,0.02,WeatherDisplay:10.37,2013-03-18 10:58:00,
2013-03-18 07:00:00,54.9,33.3,27.92,SE,135,18.4,18.4,44,0.01,CLR,SKC,0.02,WeatherDisplay:10.37,2013-03-18 11:00:00,
2013-03-18 07:02:00,54.9,33.3,27.92,SE,135,18.4,18.4,44,0.01,CLR,SKC,0.02,WeatherDisplay:10.37,2013-03-18 11:02:00,
2013-03-18 07:03:00,54.9,33.3,27.93,SE,135,18.4,18.4,44,0.01,CLR,SKC,0.02,WeatherDisplay:10.37,2013-03-18 11:03:00,
2013-03-18 07:05:00,54.9,33.3,27.93,SE,135,18.4,18.4,44,0.01,CLR,SKC,0.02,WeatherDisplay:10.37,2013-03-18 11:05:00,
2013-03-18 07:07:00,54.9,33.3,27.92,SE,135,18.4,18.4,44,0.01,CLR,SKC,0.02,WeatherDisplay:10.37,2013-03-18 11:07:00,
2013-03-18 07:08:00,54.7,33.7,27.93,SE,135,18.4,18.4,45,0.01,CLR,SKC,0.02,WeatherDisplay:10.37,2013-03-18 11:08:00,
2013-03-18 07:10:00,54.5,34.1,27.93,SE,135,10.4,10.4,46,0.01,CLR,SKC,0.02,WeatherDisplay:10.37,2013-03-18 11:10:00,
2013-03-18 07:12:00,54.5,34.1,27.93,SE,135,10.4,10.4,46,0.00,CLR,SKC,0.02,WeatherDisplay:10.37,2013-03-18 11:12:00,
2013-03-18 07:13:00,54.5,33.6,27.93,SE,135,10.4,10.4,45,0.00,CLR,SKC,0.02,WeatherDisplay:10.37,2013-03-18 11:13:00,
2013-03-18 07:15:00,54.3,34.0,27.93,SE,135,11.5,11.5,46,0.00,CLR,SKC,0.02,WeatherDisplay:10.37,2013-03-18 11:15:00,
2013-03-18 07:18:00,54.3,34.0,27.93,SE,135,8.1,8.1,46,0.00,CLR,SKC,0.02,WeatherDisplay:10.37,2013-03-18 11:18:00,
2013-03-18 07:20:00,54.3,34.0,27.93,ESE,112,13.8,13.8,46,0.00,CLR,SKC,0.02,WeatherDisplay:10.37,2013-03-18 11:20:00,
2013-03-18 07:23:00,54.3,34.0,27.93,SE,135,12.7,12.7,46,0.00,CLR,SKC,0.02,WeatherDisplay:10.37,2013-03-18 11:23:00,
2013-03-18 07:24:00,54.3,34.0,27.93,SE,135,12.7,12.7,46,0.00,CLR,SKC,0.02,WeatherDisplay:10.37,2013-03-18 11:24:00,
2013-03-18 07:25:00,54.3,34.0,27.93,SE,135,10.4,10.4,46,0.00,CLR,SKC,0.02,WeatherDisplay:10.37,2013-03-18 11:25:00,
2013-03-18 07:28:00,54.3,34.0,27.94,SE,135,11.5,11.5,46,0.00,CLR,SKC,0.02,WeatherDisplay:10.37,2013-03-18 11:28:00,
2013-03-18 07:29:00,54.3,34.0,27.94,ENE,68,10.4,10.4,46,0.00,CLR,SKC,0.02,WeatherDisplay:10.37,2013-03-18 11:29:00,
2013-03-18 07:30:00,54.1,33.8,27.94,SE,135,6.9,6.9,46,0.00,CLR,SKC,0.02,WeatherDisplay:10.37,2013-03-18 11:30:00,
2013-03-18 07:33:00,54.1,33.8,27.94,SE,135,13.8,13.8,46,0.00,CLR,SKC,0.02,WeatherDisplay:10.37,2013-03-18 11:33:00,
2013-03-18 07:34:00,54.1,33.8,27.94,South,180,9.2,9.2,46,0.00,CLR,SKC,0.02,WeatherDisplay:10.37,2013-03-18 11:34:00,
2013-03-18 07:36:00,54.0,33.6,27.94,South,180,12.7,12.7,46,0.00,CLR,SKC,0.02,WeatherDisplay:10.37,2013-03-18 11:36:00,
2013-03-18 07:38:00,54.0,33.6,27.93,South,180,11.5,11.5,46,0.00,CLR,SKC,0.02,WeatherDisplay:10.37,2013-03-18 11:38:00,
2013-03-18 07:39:00,54.0,33.6,27.94,SE,135,11.4,11.4,46,0.00,CLR,SKC,0.02,WeatherDisplay:10.37,2013-03-18 11:39:00,
2013-03-18 07:42:00,53.8,33.5,27.94,SE,135,12.7,12.7,46,0.00,CLR,SKC,0.02,WeatherDisplay:10.37,2013-03-18 11:42:00,
2013-03-18 07:43:00,53.8,33.5,27.93,ENE,68,12.7,12.7,46,0.00,CLR,SKC,0.02,WeatherDisplay:10.37,2013-03-18 11:43:00,
2013-03-18 07:44:00,53.8,33.5,27.93,ENE,68,12.7,12.7,46,0.00,CLR,SKC,0.02,WeatherDisplay:10.37,2013-03-18 11:44:00,
2013-03-18 07:47:00,53.8,32.9,27.94,SE,135,10.4,10.4,45,0.00,CLR,SKC,0.02,WeatherDisplay:10.37,2013-03-18 11:47:00,
2013-03-18 07:48:00,53.8,33.5,27.94,SE,135,15.0,15.0,46,0.00,CLR,SKC,0.02,WeatherDisplay:10.37,2013-03-18 11:48:00,
2013-03-18 07:49:00,53.8,33.5,27.94,SE,135,5.8,5.8,46,0.00,CLR,SKC,0.02,WeatherDisplay:10.37,2013-03-18 11:49:00,
2013-03-18 07:50:00,53.8,33.5,27.94,SE,135,10.4,10.4,46,0.00,CLR,SKC,0.02,WeatherDisplay:10.37,2013-03-18 11:50:00,
2013-03-18 07:52:00,53.8,33.5,27.94,SE,135,10.4,10.4,46,0.00,CLR,SKC,0.02,WeatherDisplay:10.37,2013-03-18 11:52:00,
2013-03-18 07:54:00,53.8,33.5,27.94,SE,135,9.2,9.2,46,0.00,CLR,SKC,0.02,WeatherDisplay:10.37,2013-03-18 11:54:00,
2013-03-18 07:55:00,53.8,33.5,27.94,SE,135,15.0,15.0,46,0.00,CLR,SKC,0.02,WeatherDisplay:10.37,2013-03-18 11:55:00,
2013-03-18 07:57:00,53.8,32.9,27.94,SE,135,12.7,12.7,45,0.00,CLR,SKC,0.02,WeatherDisplay:10.37,2013-03-18 11:57:00,
2013-03-18 07:59:00,53.8,33.5,27.94,ENE,68,12.7,12.7,46,0.00,CLR,SKC,0.02,WeatherDisplay:10.37,2013-03-18 11:59:00,
2013-03-18 08:00:00,53.8,32.9,27.94,SE,135,12.7,12.7,45,0.00,CLR,SKC,0.02,WeatherDisplay:10.37,2013-03-18 12:00:00,
2013-03-18 08:02:00,53.8,32.9,27.94,SE,135,9.2,9.2,45,0.00,CLR,SKC,0.02,WeatherDisplay:10.37,2013-03-18 12:02:00,
2013-03-18 08:04:00,53.8,32.9,27.94,SE,135,9.2,9.2,45,0.00,CLR,SKC,0.02,WeatherDisplay:10.37,2013-03-18 12:04:00,
2013-03-18 08:05:00,53.8,32.9,27.94,South,180,10.4,10.4,45,0.00,CLR,SKC,0.02,WeatherDisplay:10.37,2013-03-18 12:05:00,
2013-03-18 08:08:00,53.8,32.4,27.94,SE,135,11.5,11.5,44,0.00,CLR,SKC,0.02,WeatherDisplay:10.37,2013-03-18 12:08:00,
2013-03-18 08:10:00,53.8,32.4,27.94,SE,135,15.0,15.0,44,0.00,CLR,SKC,0.02,WeatherDisplay:10.37,2013-03-18 12:10:00,
2013-03-18 08:13:00,53.8,32.4,27.94,South,180,10.4,10.4,44,0.00,CLR,SKC,0.02,WeatherDisplay:10.37,2013-03-18 12:13:00,
2013-03-18 08:15:00,53.8,31.8,27.94,SE,135,11.5,11.5,43,0.00,CLR,SKC,0.02,WeatherDisplay:10.37,2013-03-18 12:15:00,
2013-03-18 08:18:00,53.8,31.8,27.95,SE,135,10.4,10.4,43,0.00,CLR,SKC,0.02,WeatherDisplay:10.37,2013-03-18 12:18:00,
2013-03-18 08:20:00,53.8,31.8,27.94,SE,135,10.4,10.4,43,0.00,CLR,SKC,0.02,WeatherDisplay:10.37,2013-03-18 12:20:00,
2013-03-18 08:21:00,53.8,31.8,27.94,SE,135,10.4,10.4,43,0.00,CLR,SKC,0.02,WeatherDisplay:10.37,2013-03-18 12:21:00,
2013-03-18 08:23:00,53.8,31.8,27.94,SE,135,17.3,17.3,43,0.00,CLR,SKC,0.02,WeatherDisplay:10.37,2013-03-18 12:23:00,
2013-03-18 08:25:00,53.6,31.0,27.95,SE,135,10.4,10.4,42,0.00,CLR,SKC,0.02,WeatherDisplay:10.37,2013-03-18 12:25:00,
2013-03-18 08:26:00,53.6,31.0,27.95,SE,135,10.4,10.4,42,0.00,CLR,SKC,0.02,WeatherDisplay:10.37,2013-03-18 12:26:00,
2013-03-18 08:27:00,53.6,31.0,27.94,SE,135,11.5,11.5,42,0.00,CLR,SKC,0.02,WeatherDisplay:10.37,2013-03-18 12:27:00,
2013-03-18 08:28:00,53.6,31.0,27.94,SE,135,12.7,12.7,42,0.00,CLR,SKC,0.02,WeatherDisplay:10.37,2013-03-18 12:28:00,
2013-03-18 08:30:00,53.6,31.0,27.94,ENE,68,10.7,10.7,42,0.00,CLR,SKC,0.02,WeatherDisplay:10.37,2013-03-18 12:30:00,
2013-03-18 08:32:00,53.6,31.0,27.95,SE,135,12.7,12.7,42,0.00,CLR,SKC,0.02,WeatherDisplay:10.37,2013-03-18 12:32:00,
2013-03-18 08:34:00,53.6,31.6,27.95,SE,135,15.0,15.0,43,0.00,CLR,SKC,0.02,WeatherDisplay:10.37,2013-03-18 12:34:00,
2013-03-18 08:36:00,53.6,31.6,27.94,South,180,10.4,10.4,43,0.00,CLR,SKC,0.02,WeatherDisplay:10.37,2013-03-18 12:36:00,
2013-03-18 08:37:00,53.6,31.0,27.94,SSE,158,13.7,13.7,42,0.00,CLR,SKC,0.02,WeatherDisplay:10.37,2013-03-18 12:37:00,
2013-03-18 08:38:00,53.6,31.0,27.94,SE,135,13.8,13.8,42,0.00,CLR,SKC,0.02,WeatherDisplay:10.37,2013-03-18 12:38:00,
2013-03-18 08:39:00,53.6,31.0,27.94,SW,225,10.4,10.4,42,0.00,CLR,SKC,0.02,WeatherDisplay:10.37,2013-03-18 12:39:00,
2013-03-18 08:41:00,53.6,31.0,27.93,SE,135,8.1,8.1,42,0.00,CLR,SKC,0.02,WeatherDisplay:10.37,2013-03-18 12:41:00,
2013-03-18 08:43:00,53.6,31.0,27.94,SE,135,10.4,10.4,42,0.00,CLR,SKC,0.02,WeatherDisplay:10.37,2013-03-18 12:43:00,
2013-03-18 08:44:00,53.6,30.4,27.94,SSE,158,10.4,10.4,41,0.00,CLR,SKC,0.02,WeatherDisplay:10.37,2013-03-18 12:44:00,
2013-03-18 08:46:00,53.6,30.4,27.94,SE,135,8.1,8.3,41,0.00,CLR,SKC,0.02,WeatherDisplay:10.37,2013-03-18 12:46:00,
2013-03-18 08:48:00,53.4,30.3,27.94,South,180,12.7,12.7,41,0.00,CLR,SKC,0.02,WeatherDisplay:10.37,2013-03-18 12:48:00,
2013-03-18 08:49:00,53.4,30.3,27.95,SE,135,12.7,12.7,41,0.00,CLR,SKC,0.02,WeatherDisplay:10.37,2013-03-18 12:49:00,
2013-03-18 08:52:00,53.4,30.9,27.94,ENE,68,8.1,8.1,42,0.00,CLR,SKC,0.02,WeatherDisplay:10.37,2013-03-18 12:52:00,
2013-03-18 08:53:00,53.4,30.9,27.94,SSW,202,12.7,12.7,42,0.00,CLR,SKC,0.02,WeatherDisplay:10.37,2013-03-18 12:53:00,
2013-03-18 08:54:00,53.4,30.3,27.94,SE,135,12.7,12.7,41,0.00,CLR,SKC,0.02,WeatherDisplay:10.37,2013-03-18 12:54:00,
2013-03-18 08:57:00,53.2,30.1,27.94,SE,135,9.2,9.2,41,0.00,CLR,SKC,0.02,WeatherDisplay:10.37,2013-03-18 12:57:00,
2013-03-18 08:58:00,53.2,30.7,27.94,ENE,68,9.2,9.2,42,0.00,CLR,SKC,0.02,WeatherDisplay:10.37,2013-03-18 12:58:00,
2013-03-18 08:59:00,53.2,30.7,27.94,ENE,68,8.1,8.1,42,0.00,CLR,SKC,0.02,WeatherDisplay:10.37,2013-03-18 12:59:00,
2013-03-18 09:02:00,53.2,30.7,27.94,SE,135,10.4,10.4,42,0.00,CLR,SKC,0.02,WeatherDisplay:10.37,2013-03-18 13:02:00,
2013-03-18 09:03:00,53.2,30.7,27.94,SE,135,10.4,10.4,42,0.00,CLR,SKC,0.02,WeatherDisplay:10.37,2013-03-18 13:03:00,
2013-03-18 09:04:00,53.2,30.7,27.94,SE,135,10.4,10.4,42,0.00,CLR,SKC,0.02,WeatherDisplay:10.37,2013-03-18 13:04:00,
2013-03-18 09:07:00,53.2,30.7,27.94,SE,135,10.4,10.4,42,0.00,CLR,SKC,0.02,WeatherDisplay:10.37,2013-03-18 13:07:00,
2013-03-18 09:08:00,53.2,31.3,27.95,ENE,68,6.9,6.9,43,0.00,CLR,SKC,0.02,WeatherDisplay:10.37,2013-03-18 13:08:00,
2013-03-18 09:09:00,53.2,31.3,27.95,ENE,68,6.9,6.9,43,0.00,CLR,SKC,0.02,WeatherDisplay:10.37,2013-03-18 13:09:00,
2013-03-18 09:12:00,53.2,30.1,27.94,SE,135,11.5,11.5,41,0.00,CLR,SKC,0.02,WeatherDisplay:10.37,2013-03-18 13:12:00,
2013-03-18 09:13:00,53.1,30.0,27.94,SE,135,13.8,13.8,41,0.00,CLR,SKC,0.02,WeatherDisplay:10.37,2013-03-18 13:13:00,
2013-03-18 09:14:00,53.1,30.0,27.95,SE,135,13.8,13.8,41,0.00,CLR,SKC,0.02,WeatherDisplay:10.37,2013-03-18 13:14:00,
2013-03-18 09:17:00,53.1,30.0,27.95,SE,135,15.0,15.0,41,0.00,CLR,SKC,0.02,WeatherDisplay:10.37,2013-03-18 13:17:00,
2013-03-18 09:19:00,53.1,30.0,27.95,SE,135,8.1,8.1,41,0.00,CLR,SKC,0.02,WeatherDisplay:10.37,2013-03-18 13:19:00,
2013-03-18 09:23:00,53.1,30.6,27.95,SE,135,8.3,8.3,42,0.00,CLR,SKC,0.02,WeatherDisplay:10.37,2013-03-18 13:23:00,
2013-03-18 09:24:00,53.1,30.6,27.95,ENE,68,8.1,8.1,42,0.00,CLR,SKC,0.02,WeatherDisplay:10.37,2013-03-18 13:24:00,
2013-03-18 09:28:00,53.1,30.0,27.94,South,180,19.6,19.6,41,0.00,CLR,SKC,0.02,WeatherDisplay:10.37,2013-03-18 13:28:00,
2013-03-18 09:29:00,53.1,29.4,27.94,SE,135,11.5,11.5,40,0.00,CLR,SKC,0.02,WeatherDisplay:10.37,2013-03-18 13:29:00,
2013-03-18 09:34:00,53.1,29.4,27.93,SE,135,14.5,14.5,40,0.00,CLR,SKC,0.02,WeatherDisplay:10.37,2013-03-18 13:34:00,
2013-03-18 09:35:00,53.1,29.4,27.93,ENE,68,15.0,15.0,40,0.00,CLR,SKC,0.02,WeatherDisplay:10.37,2013-03-18 13:35:00,
2013-03-18 09:39:00,53.1,29.4,27.93,SE,135,5.8,5.8,40,0.00,CLR,SKC,0.02,WeatherDisplay:10.37,2013-03-18 13:39:00,
2013-03-18 09:40:00,53.2,29.5,27.94,SE,135,8.1,8.1,40,0.00,CLR,SKC,0.02,WeatherDisplay:10.37,2013-03-18 13:40:00,
2013-03-18 09:44:00,53.2,29.5,27.93,SSE,158,5.8,5.8,40,0.00,CLR,SKC,0.02,WeatherDisplay:10.37,2013-03-18 13:44:00,
2013-03-18 09:45:00,53.4,29.7,27.93,ENE,68,8.1,8.1,40,0.00,CLR,SKC,0.02,WeatherDisplay:10.37,2013-03-18 13:45:00,
2013-03-18 09:49:00,53.4,29.1,27.93,SE,135,8.1,8.1,39,0.00,CLR,SKC,0.02,WeatherDisplay:10.37,2013-03-18 13:49:00,
2013-03-18 09:50:00,53.4,29.1,27.93,SE,135,9.2,9.2,39,0.00,CLR,SKC,0.02,WeatherDisplay:10.37,2013-03-18 13:50:00,
2013-03-18 09:54:00,53.2,28.3,27.93,ENE,68,12.7,12.7,38,0.00,CLR,SKC,0.02,WeatherDisplay:10.37,2013-03-18 13:54:00,
2013-03-18 09:55:00,53.2,28.3,27.94,South,180,12.7,12.7,38,0.00,CLR,SKC,0.02,WeatherDisplay:10.37,2013-03-18 13:55:00,
2013-03-18 09:56:00,53.2,28.3,27.93,SE,135,13.8,13.8,38,0.00,CLR,SKC,0.02,WeatherDisplay:10.37,2013-03-18 13:56:00,
2013-03-18 09:59:00,53.1,28.1,27.93,South,180,19.6,19.6,38,0.00,CLR,SKC,0.02,WeatherDisplay:10.37,2013-03-18 13:59:00,
2013-03-18 10:00:00,53.1,28.1,27.94,SE,135,15.0,15.0,38,0.00,CLR,SKC,0.02,WeatherDisplay:10.37,2013-03-18 14:00:00,
2013-03-18 10:01:00,53.1,28.1,27.93,SE,135,15.0,15.0,38,0.00,CLR,SKC,0.02,WeatherDisplay:10.37,2013-03-18 14:01:00,
2013-03-18 10:05:00,53.1,28.1,27.93,South,180,12.7,12.7,38,0.00,CLR,SKC,0.02,WeatherDisplay:10.37,2013-03-18 14:05:00,
2013-03-18 10:06:00,52.9,27.9,27.93,SE,135,17.3,17.3,38,0.00,CLR,SKC,0.02,WeatherDisplay:10.37,2013-03-18 14:06:00,
2013-03-18 10:10:00,53.1,28.1,27.92,SE,135,13.8,13.8,38,0.00,CLR,SKC,0.02,WeatherDisplay:10.37,2013-03-18 14:10:00,
2013-03-18 10:12:00,53.1,28.1,27.93,SSE,158,15.0,15.0,38,0.00,CLR,SKC,0.02,WeatherDisplay:10.37,2013-03-18 14:12:00,
2013-03-18 10:15:00,53.2,27.6,27.93,South,180,15.0,15.0,37,0.00,CLR,SKC,0.02,WeatherDisplay:10.37,2013-03-18 14:15:00,
2013-03-18 10:17:00,53.2,27.6,27.93,South,180,15.0,15.0,37,0.00,CLR,SKC,0.02,WeatherDisplay:10.37,2013-03-18 14:17:00,
2013-03-18 10:20:00,53.4,27.8,27.93,South,180,15.0,15.0,37,0.00,CLR,SKC,0.02,WeatherDisplay:10.37,2013-03-18 14:20:00,
2013-03-18 10:21:00,53.6,28.6,27.93,ENE,68,15.0,15.0,38,0.00,CLR,SKC,0.02,WeatherDisplay:10.37,2013-03-18 14:21:00,
2013-03-18 10:23:00,53.6,27.3,27.93,North,0,8.1,8.1,36,0.00,CLR,SKC,0.02,WeatherDisplay:10.37,2013-03-18 14:23:00,
2013-03-18 10:26:00,53.6,27.3,27.93,South,180,5.8,5.8,36,0.00,CLR,SKC,0.02,WeatherDisplay:10.37,2013-03-18 14:26:00,
2013-03-18 10:28:00,53.4,26.4,27.93,SE,135,18.4,18.4,35,0.00,CLR,SKC,0.02,WeatherDisplay:10.37,2013-03-18 14:28:00,
2013-03-18 10:31:00,53.1,26.8,27.93,South,180,10.4,10.4,36,0.00,CLR,SKC,0.02,WeatherDisplay:10.37,2013-03-18 14:31:00,
2013-03-18 10:33:00,53.1,27.4,27.94,West,270,8.3,8.3,37,0.00,CLR,SKC,0.02,WeatherDisplay:10.37,2013-03-18 14:33:00,
2013-03-18 10:36:00,53.2,27.6,27.93,South,180,9.2,9.2,37,0.00,CLR,SKC,0.02,WeatherDisplay:10.37,2013-03-18 14:36:00,
2013-03-18 10:37:00,53.2,27.6,27.93,South,180,9.2,9.2,37,0.00,CLR,SKC,0.02,WeatherDisplay:10.37,2013-03-18 14:37:00,
2013-03-18 10:38:00,53.2,26.9,27.93,SE,135,15.0,15.0,36,0.00,CLR,SKC,0.02,WeatherDisplay:10.37,2013-03-18 14:38:00,
2013-03-18 10:42:00,53.2,26.9,27.93,SE,135,13.8,13.8,36,0.00,CLR,SKC,0.02,WeatherDisplay:10.37,2013-03-18 14:42:00,
2013-03-18 10:43:00,53.4,27.1,27.92,ENE,68,10.4,10.4,36,0.00,CLR,SKC,0.02,WeatherDisplay:10.37,2013-03-18 14:43:00,
2013-03-18 10:47:00,53.6,25.9,27.92,South,180,17.3,17.3,34,0.00,CLR,SKC,0.02,WeatherDisplay:10.37,2013-03-18 14:47:00,
2013-03-18 10:49:00,53.4,26.4,27.92,South,180,23.0,23.0,35,0.00,CLR,SKC,0.02,WeatherDisplay:10.37,2013-03-18 14:49:00,
2013-03-18 10:52:00,53.4,27.1,27.92,South,180,12.7,12.7,36,0.00,CLR,SKC,0.02,WeatherDisplay:10.37,2013-03-18 14:52:00,
2013-03-18 10:53:00,53.4,27.1,27.92,SE,135,12.7,12.7,36,0.00,CLR,SKC,0.02,WeatherDisplay:10.37,2013-03-18 14:53:00,
2013-03-18 10:54:00,53.4,26.4,27.93,South,180,17.3,17.3,35,0.00,CLR,SKC,0.02,WeatherDisplay:10.37,2013-03-18 14:54:00,
2013-03-18 10:57:00,53.8,26.0,27.93,South,180,10.4,10.4,34,0.00,CLR,SKC,0.02,WeatherDisplay:10.37,2013-03-18 14:57:00,
2013-03-18 10:58:00,53.8,26.0,27.93,SE,135,15.0,15.0,34,0.00,CLR,SKC,0.02,WeatherDisplay:10.37,2013-03-18 14:58:00,
2013-03-18 10:59:00,53.8,26.0,27.93,SE,135,10.4,10.4,34,0.00,CLR,SKC,0.02,WeatherDisplay:10.37,2013-03-18 14:59:00,
2013-03-18 11:02:00,53.8,26.0,27.93,SE,135,15.0,15.0,34,0.00,CLR,SKC,0.02,WeatherDisplay:10.37,2013-03-18 15:02:00,
2013-03-18 11:03:00,53.8,26.0,27.93,SE,135,10.4,10.4,34,0.00,CLR,SKC,0.02,WeatherDisplay:10.37,2013-03-18 15:03:00,
2013-03-18 11:04:00,54.0,26.2,27.93,South,180,10.4,10.4,34,0.00,CLR,SKC,0.02,WeatherDisplay:10.37,2013-03-18 15:04:00,
2013-03-18 11:07:00,54.0,25.5,27.92,East,90,8.1,8.1,33,0.00,CLR,SKC,0.02,WeatherDisplay:10.37,2013-03-18 15:07:00,
2013-03-18 11:08:00,54.0,26.2,27.93,SE,135,13.8,13.8,34,0.00,CLR,SKC,0.02,WeatherDisplay:10.37,2013-03-18 15:08:00,
2013-03-18 11:10:00,54.0,25.5,27.93,SSW,202,16.1,16.1,33,0.00,CLR,SKC,0.02,WeatherDisplay:10.37,2013-03-18 15:10:00,
2013-03-18 11:13:00,54.1,25.6,27.93,SE,135,11.5,11.5,33,0.00,CLR,SKC,0.02,WeatherDisplay:10.37,2013-03-18 15:13:00,
2013-03-18 11:15:00,54.3,25.1,27.92,South,180,10.4,10.4,32,0.00,CLR,SKC,0.02,WeatherDisplay:10.37,2013-03-18 15:15:00,
2013-03-18 11:18:00,54.3,25.1,27.93,South,180,10.4,10.4,32,0.00,CLR,SKC,0.02,WeatherDisplay:10.37,2013-03-18 15:18:00,
2013-03-18 11:21:00,54.9,24.0,27.93,ENE,68,10.4,10.4,30,0.00,CLR,SKC,0.02,WeatherDisplay:10.37,2013-03-18 15:21:00,
2013-03-18 11:23:00,55.0,24.9,27.93,SE,135,8.3,8.3,31,0.00,CLR,SKC,0.02,WeatherDisplay:10.37,2013-03-18 15:23:00,
2013-03-18 11:24:00,55.0,24.9,27.93,SE,135,8.1,8.1,31,0.00,CLR,SKC,0.02,WeatherDisplay:10.37,2013-03-18 15:24:00,
2013-03-18 11:26:00,54.9,24.0,27.93,South,180,11.5,11.5,30,0.00,CLR,SKC,0.02,WeatherDisplay:10.37,2013-03-18 15:26:00,
2013-03-18 11:28:00,54.9,24.8,27.93,SW,225,8.1,8.1,31,0.00,CLR,SKC,0.02,WeatherDisplay:10.37,2013-03-18 15:28:00,
2013-03-18 11:29:00,54.9,24.0,27.93,SE,135,5.8,5.8,30,0.00,CLR,SKC,0.02,WeatherDisplay:10.37,2013-03-18 15:29:00,
2013-03-18 11:32:00,55.2,25.1,27.93,SE,135,3.5,3.5,31,0.00,CLR,SKC,0.02,WeatherDisplay:10.37,2013-03-18 15:32:00,
2013-03-18 11:33:00,55.2,25.1,27.92,SE,135,3.5,3.5,31,0.00,CLR,SKC,0.02,WeatherDisplay:10.37,2013-03-18 15:33:00,
2013-03-18 11:34:00,55.2,25.1,27.92,SE,135,3.5,3.5,31,0.00,CLR,SKC,0.02,WeatherDisplay:10.37,2013-03-18 15:34:00,
2013-03-18 11:37:00,55.4,23.6,27.92,SE,135,8.1,8.1,29,0.00,CLR,SKC,0.02,WeatherDisplay:10.37,2013-03-18 15:37:00,
2013-03-18 11:38:00,55.6,23.0,27.92,SE,135,9.2,9.2,28,0.00,CLR,SKC,0.02,WeatherDisplay:10.37,2013-03-18 15:38:00,
2013-03-18 11:39:00,55.6,23.0,27.92,SE,135,12.7,12.7,28,0.00,CLR,SKC,0.02,WeatherDisplay:10.37,2013-03-18 15:39:00,
2013-03-18 11:42:00,55.4,23.6,27.92,South,180,6.9,6.9,29,0.00,CLR,SKC,0.02,WeatherDisplay:10.37,2013-03-18 15:42:00,
2013-03-18 11:44:00,55.6,23.0,27.92,South,180,13.8,13.8,28,0.00,CLR,SKC,0.02,WeatherDisplay:10.37,2013-03-18 15:44:00,
2013-03-18 11:47:00,55.6,23.0,27.92,South,180,8.1,8.1,28,0.00,CLR,SKC,0.02,WeatherDisplay:10.37,2013-03-18 15:47:00,
2013-03-18 11:49:00,55.6,23.0,27.92,South,180,8.1,8.1,28,0.00,CLR,SKC,0.02,WeatherDisplay:10.37,2013-03-18 15:49:00,
2013-03-18 11:50:00,54.7,23.0,27.92,SE,135,8.1,8.1,29,0.00,CLR,SKC,0.02,WeatherDisplay:10.37,2013-03-18 15:50:00,
2013-03-18 11:52:00,55.0,24.1,27.91,ENE,68,11.5,11.5,30,0.00,CLR,SKC,0.02,WeatherDisplay:10.37,2013-03-18 15:52:00,
2013-03-18 11:54:00,55.0,24.1,27.91,ENE,68,9.2,9.2,30,0.00,CLR,SKC,0.02,WeatherDisplay:10.37,2013-03-18 15:54:00,
2013-03-18 11:55:00,55.0,24.1,27.91,ENE,68,9.2,9.2,30,0.00,CLR,SKC,0.02,WeatherDisplay:10.37,2013-03-18 15:55:00,
2013-03-18 11:57:00,56.8,24.9,27.92,SE,135,13.8,13.8,29,0.00,CLR,SKC,0.02,WeatherDisplay:10.37,2013-03-18 15:57:00,
2013-03-18 11:59:00,55.6,23.0,27.91,ENE,68,13.8,13.8,28,0.00,CLR,SKC,0.02,WeatherDisplay:10.37,2013-03-18 15:59:00,
2013-03-18 12:00:00,55.6,22.1,27.91,East,90,13.8,13.8,27,0.00,CLR,SKC,0.02,WeatherDisplay:10.37,2013-03-18 16:00:00,
2013-03-18 12:02:00,56.3,23.6,27.91,SE,135,6.9,6.9,28,0.00,CLR,SKC,0.02,WeatherDisplay:10.37,2013-03-18 16:02:00,
2013-03-18 12:04:00,56.3,21.8,27.92,SE,135,19.6,19.6,26,0.00,CLR,SKC,0.02,WeatherDisplay:10.37,2013-03-18 16:04:00,
2013-03-18 12:05:00,56.3,22.7,27.92,SE,135,19.6,19.6,27,0.00,CLR,SKC,0.02,WeatherDisplay:10.37,2013-03-18 16:05:00,
2013-03-18 12:06:00,56.3,22.7,27.92,SE,135,12.7,12.7,27,0.00,CLR,SKC,0.02,WeatherDisplay:10.37,2013-03-18 16:06:00,
2013-03-18 12:08:00,56.3,22.7,27.91,SE,135,12.7,12.7,27,0.00,CLR,SKC,0.02,WeatherDisplay:10.37,2013-03-18 16:08:00,
2013-03-18 12:09:00,56.1,21.7,27.91,South,180,12.7,12.7,26,0.00,CLR,SKC,0.02,WeatherDisplay:10.37,2013-03-18 16:09:00,
2013-03-18 12:10:00,55.9,21.5,27.91,SE,135,12.7,12.7,26,0.00,CLR,SKC,0.02,WeatherDisplay:10.37,2013-03-18 16:10:00,
2013-03-18 12:11:00,55.9,22.4,27.92,SE,135,15.0,15.0,27,0.00,CLR,SKC,0.02,WeatherDisplay:10.37,2013-03-18 16:11:00,
2013-03-18 12:13:00,55.9,22.4,27.92,South,180,8.1,8.1,27,0.00,CLR,SKC,0.02,WeatherDisplay:10.37,2013-03-18 16:13:00,
2013-03-18 12:15:00,55.6,22.1,27.92,South,180,13.8,13.8,27,0.00,CLR,SKC,0.02,WeatherDisplay:10.37,2013-03-18 16:15:00,
2013-03-18 12:16:00,55.6,22.1,27.92,South,180,12.7,12.7,27,0.00,CLR,SKC,0.02,WeatherDisplay:10.37,2013-03-18 16:16:00,
2013-03-18 12:18:00,55.6,22.1,27.91,South,180,12.7,12.7,27,0.00,CLR,SKC,0.02,WeatherDisplay:10.37,2013-03-18 16:18:00,
2013-03-18 12:20:00,55.6,22.1,27.91,South,180,12.7,12.7,27,0.00,CLR,SKC,0.02,WeatherDisplay:10.37,2013-03-18 16:20:00,
2013-03-18 12:21:00,54.7,26.8,27.91,SE,135,12.7,12.7,34,0.01,RA,SKC,0.04,WeatherDisplay:10.37,2013-03-18 16:21:00,
2013-03-18 12:22:00,54.5,27.4,27.92,SE,135,6.9,6.9,35,0.01,RA,SKC,0.04,WeatherDisplay:10.37,2013-03-18 16:22:00,
2013-03-18 12:23:00,54.0,26.2,27.91,SSE,158,13.8,13.8,34,0.01,RA,SKC,0.04,WeatherDisplay:10.37,2013-03-18 16:23:00,
2013-03-18 12:25:00,54.0,27.6,27.91,SE,135,10.4,10.4,36,0.01,RA,SKC,0.04,WeatherDisplay:10.37,2013-03-18 16:25:00,
2013-03-18 12:27:00,53.4,27.8,27.91,SE,135,10.4,10.4,37,0.01,RA,SKC,0.04,WeatherDisplay:10.37,2013-03-18 16:27:00,
2013-03-18 12:28:00,53.2,26.9,27.91,SE,135,19.6,19.6,36,0.01,RA,SKC,0.04,WeatherDisplay:10.37,2013-03-18 16:28:00,
2013-03-18 12:30:00,53.1,28.1,27.90,SSE,158,8.1,8.1,38,0.01,RA,SKC,0.04,WeatherDisplay:10.37,2013-03-18 16:30:00,
2013-03-18 12:32:00,53.1,29.4,27.90,SSW,202,10.4,10.4,40,0.01,,SKC,0.04,WeatherDisplay:10.37,2013-03-18 16:32:00,
2013-03-18 12:33:00,53.1,29.4,27.90,SSW,202,10.4,10.4,40,0.01,CLR,SKC,0.04,WeatherDisplay:10.37,2013-03-18 16:33:00,
2013-03-18 12:35:00,52.5,29.5,27.89,SE,135,11.5,11.5,41,0.02,RA,SKC,0.05,WeatherDisplay:10.37,2013-03-18 16:35:00,
2013-03-18 12:38:00,52.3,30.5,27.89,SE,135,10.4,10.4,43,0.02,RA,SKC,0.05,WeatherDisplay:10.37,2013-03-18 16:38:00,
2013-03-18 12:39:00,52.2,30.9,27.89,SE,135,17.3,17.3,44,0.02,RA,SKC,0.05,WeatherDisplay:10.37,2013-03-18 16:39:00,
2013-03-18 12:40:00,52.2,30.9,27.89,SE,135,17.3,17.3,44,0.02,RA,SKC,0.05,WeatherDisplay:10.37,2013-03-18 16:40:00,
2013-03-18 12:43:00,52.2,30.3,27.89,SE,135,17.3,17.3,43,0.02,RA,SKC,0.05,WeatherDisplay:10.37,2013-03-18 16:43:00,
2013-03-18 12:44:00,52.2,30.9,27.89,SE,135,18.4,18.4,44,0.02,,SKC,0.05,WeatherDisplay:10.37,2013-03-18 16:44:00,
2013-03-18 12:45:00,52.3,31.6,27.89,SE,135,18.4,18.4,45,0.02,,SKC,0.05,WeatherDisplay:10.37,2013-03-18 16:45:00,
2013-03-18 12:48:00,52.9,32.6,27.89,SE,135,9.2,9.2,46,0.02,CLR,SKC,0.05,WeatherDisplay:10.37,2013-03-18 16:48:00,
2013-03-18 12:49:00,53.1,32.3,27.89,SE,135,10.4,10.4,45,0.02,CLR,SKC,0.05,WeatherDisplay:10.37,2013-03-18 16:49:00,
2013-03-18 12:50:00,53.1,31.1,27.89,SE,135,10.4,10.4,43,0.02,CLR,SKC,0.05,WeatherDisplay:10.37,2013-03-18 16:50:00,
2013-03-18 12:53:00,53.2,30.1,27.89,SE,135,12.7,12.7,41,0.04,RA,SKC,0.06,WeatherDisplay:10.37,2013-03-18 16:53:00,
2013-03-18 12:54:00,53.2,30.1,27.89,South,180,12.7,12.7,41,0.04,RA,SKC,0.06,WeatherDisplay:10.37,2013-03-18 16:54:00,
2013-03-18 12:56:00,53.4,30.3,27.89,SE,135,10.4,10.4,41,0.04,RA,SKC,0.06,WeatherDisplay:10.37,2013-03-18 16:56:00,
2013-03-18 12:58:00,53.2,30.1,27.89,ENE,68,12.7,12.7,41,0.04,RA,SKC,0.06,WeatherDisplay:10.37,2013-03-18 16:58:00,
2013-03-18 12:59:00,53.2,29.5,27.88,ENE,68,10.4,10.4,40,0.04,RA,SKC,0.06,WeatherDisplay:10.37,2013-03-18 16:59:00,
2013-03-18 13:00:00,53.2,30.1,27.88,South,180,10.4,10.4,41,0.04,RA,SKC,0.06,WeatherDisplay:10.37,2013-03-18 17:00:00,
2013-03-18 13:01:00,53.4,30.3,27.88,SE,135,13.8,13.8,41,0.04,,SKC,0.06,WeatherDisplay:10.37,2013-03-18 17:01:00,
2013-03-18 13:03:00,53.8,30.6,27.87,East,90,11.5,11.5,41,0.04,CLR,SKC,0.06,WeatherDisplay:10.37,2013-03-18 17:03:00,
2013-03-18 13:04:00,54.1,31.5,27.88,SE,135,13.8,13.8,42,0.04,CLR,SKC,0.06,WeatherDisplay:10.37,2013-03-18 17:04:00,
2013-03-18 13:05:00,54.1,31.5,27.88,SE,135,13.8,13.8,42,0.04,CLR,SKC,0.06,WeatherDisplay:10.37,2013-03-18 17:05:00,
2013-03-18 13:06:00,54.3,29.2,27.88,SE,135,10.4,10.4,38,0.04,CLR,SKC,0.06,WeatherDisplay:10.37,2013-03-18 17:06:00,
2013-03-18 13:08:00,54.3,27.9,27.88,SE,135,15.0,15.0,36,0.04,CLR,SKC,0.06,WeatherDisplay:10.37,2013-03-18 17:08:00,
2013-03-18 13:09:00,54.3,27.9,27.88,SE,135,12.7,12.7,36,0.04,CLR,SKC,0.06,WeatherDisplay:10.37,2013-03-18 17:09:00,
2013-03-18 13:10:00,54.1,29.1,27.89,SE,135,12.7,12.7,38,0.04,CLR,SKC,0.06,WeatherDisplay:10.37,2013-03-18 17:10:00,
2013-03-18 13:12:00,54.1,28.4,27.88,SE,135,8.1,8.1,37,0.04,CLR,SKC,0.06,WeatherDisplay:10.37,2013-03-18 17:12:00,
2013-03-18 13:14:00,54.0,28.3,27.88,SE,135,12.7,12.7,37,0.04,CLR,SKC,0.06,WeatherDisplay:10.37,2013-03-18 17:14:00,
2013-03-18 13:15:00,53.8,27.4,27.88,SE,135,12.7,12.7,36,0.04,CLR,SKC,0.06,WeatherDisplay:10.37,2013-03-18 17:15:00,
2013-03-18 13:19:00,53.8,27.4,27.88,SE,135,9.2,9.2,36,0.04,CLR,SKC,0.06,WeatherDisplay:10.37,2013-03-18 17:19:00,
2013-03-18 13:20:00,53.1,28.1,27.88,South,180,9.2,9.2,38,0.04,CLR,SKC,0.06,WeatherDisplay:10.37,2013-03-18 17:20:00,
2013-03-18 13:24:00,53.2,28.9,27.88,SE,135,10.4,10.4,39,0.02,CLR,SKC,0.06,WeatherDisplay:10.37,2013-03-18 17:24:00,
2013-03-18 13:25:00,53.2,29.5,27.87,SE,135,8.1,8.1,40,0.02,CLR,SKC,0.06,WeatherDisplay:10.37,2013-03-18 17:25:00,
2013-03-18 13:29:00,53.2,28.3,27.87,South,180,17.3,17.3,38,0.02,CLR,SKC,0.06,WeatherDisplay:10.37,2013-03-18 17:29:00,
2013-03-18 13:30:00,53.4,28.4,27.88,SE,135,11.5,11.5,38,0.02,CLR,SKC,0.06,WeatherDisplay:10.37,2013-03-18 17:30:00,
2013-03-18 13:34:00,53.4,28.4,27.88,SE,135,9.2,9.2,38,0.01,CLR,SKC,0.06,WeatherDisplay:10.37,2013-03-18 17:34:00,
2013-03-18 13:35:00,53.4,28.4,27.88,SE,135,9.2,9.2,38,0.01,CLR,SKC,0.06,WeatherDisplay:10.37,2013-03-18 17:35:00,
2013-03-18 13:39:00,52.9,27.3,27.88,SSE,158,11.5,11.5,37,0.01,CLR,SKC,0.06,WeatherDisplay:10.37,2013-03-18 17:39:00,
2013-03-18 13:40:00,52.9,27.9,27.88,SE,135,11.5,11.5,38,0.01,CLR,SKC,0.06,WeatherDisplay:10.37,2013-03-18 17:40:00,
2013-03-18 13:42:00,52.9,27.9,27.88,South,180,8.1,8.1,38,0.01,CLR,SKC,0.06,WeatherDisplay:10.37,2013-03-18 17:42:00,
2013-03-18 13:45:00,52.7,27.8,27.88,SE,135,10.4,10.4,38,0.01,CLR,SKC,0.06,WeatherDisplay:10.37,2013-03-18 17:45:00,
2013-03-18 13:46:00,52.7,27.8,27.88,SE,135,8.1,8.1,38,0.01,CLR,SKC,0.06,WeatherDisplay:10.37,2013-03-18 17:46:00,
2013-03-18 13:47:00,52.7,27.8,27.88,SE,135,12.7,12.7,38,0.01,CLR,SKC,0.06,WeatherDisplay:10.37,2013-03-18 17:47:00,
2013-03-18 13:50:00,52.5,27.6,27.87,SE,135,12.7,12.7,38,0.01,CLR,SKC,0.06,WeatherDisplay:10.37,2013-03-18 17:50:00,
2013-03-18 13:51:00,52.5,28.2,27.87,ENE,68,9.2,9.2,39,0.00,CLR,SKC,0.06,WeatherDisplay:10.37,2013-03-18 17:51:00,
2013-03-18 13:53:00,52.5,28.2,27.86,SW,225,13.8,13.8,39,0.00,CLR,SKC,0.06,WeatherDisplay:10.37,2013-03-18 17:53:00,
2013-03-18 13:55:00,52.7,28.4,27.86,SE,135,10.4,10.4,39,0.00,CLR,SKC,0.06,WeatherDisplay:10.37,2013-03-18 17:55:00,
2013-03-18 13:56:00,52.7,28.4,27.86,SE,135,10.4,10.4,39,0.00,CLR,SKC,0.06,WeatherDisplay:10.37,2013-03-18 17:56:00,
2013-03-18 13:57:00,52.7,28.4,27.86,SE,135,8.1,8.3,39,0.00,CLR,SKC,0.06,WeatherDisplay:10.37,2013-03-18 17:57:00,
2013-03-18 13:58:00,52.9,27.9,27.86,SE,135,17.3,17.3,38,0.00,CLR,SKC,0.06,WeatherDisplay:10.37,2013-03-18 17:58:00,
2013-03-18 14:01:00,52.9,27.9,27.86,South,180,19.6,19.6,38,0.00,CLR,SKC,0.06,WeatherDisplay:10.37,2013-03-18 18:01:00,
2013-03-18 14:02:00,52.9,27.9,27.86,South,180,19.6,19.6,38,0.00,CLR,SKC,0.06,WeatherDisplay:10.37,2013-03-18 18:02:00,
2013-03-18 14:03:00,53.1,28.1,27.85,South,180,12.7,12.7,38,0.00,CLR,SKC,0.06,WeatherDisplay:10.37,2013-03-18 18:03:00,
2013-03-18 14:06:00,52.9,27.3,27.85,SE,135,12.7,12.7,37,0.00,CLR,SKC,0.06,WeatherDisplay:10.37,2013-03-18 18:06:00,
2013-03-18 14:07:00,52.9,27.3,27.85,SE,135,12.7,12.7,37,0.00,CLR,SKC,0.06,WeatherDisplay:10.37,2013-03-18 18:07:00,
2013-03-18 14:08:00,52.9,27.9,27.85,South,180,10.4,10.4,38,0.00,CLR,SKC,0.06,WeatherDisplay:10.37,2013-03-18 18:08:00,
2013-03-18 14:12:00,52.9,27.9,27.85,SE,135,12.7,12.7,38,0.00,CLR,SKC,0.06,WeatherDisplay:10.37,2013-03-18 18:12:00,
2013-03-18 14:13:00,52.7,28.4,27.85,SE,135,11.5,11.5,39,0.00,CLR,SKC,0.06,WeatherDisplay:10.37,2013-03-18 18:13:00,
2013-03-18 14:14:00,52.7,28.4,27.85,SE,135,10.4,10.4,39,0.00,CLR,SKC,0.06,WeatherDisplay:10.37,2013-03-18 18:14:00,
2013-03-18 14:17:00,52.5,28.9,27.85,SSE,158,17.3,17.3,40,0.00,CLR,SKC,0.06,WeatherDisplay:10.37,2013-03-18 18:17:00,
2013-03-18 14:18:00,52.5,28.9,27.84,SE,135,17.3,17.3,40,0.00,CLR,SKC,0.06,WeatherDisplay:10.37,2013-03-18 18:18:00,
2013-03-18 14:19:00,52.5,29.5,27.84,SE,135,11.5,11.5,41,0.00,CLR,SKC,0.06,WeatherDisplay:10.37,2013-03-18 18:19:00,
2013-03-18 14:22:00,52.3,29.3,27.84,SE,135,17.3,17.3,41,0.00,CLR,SKC,0.06,WeatherDisplay:10.37,2013-03-18 18:22:00,
2013-03-18 14:23:00,52.3,29.3,27.84,SE,135,12.7,12.7,41,0.00,CLR,SKC,0.06,WeatherDisplay:10.37,2013-03-18 18:23:00,
2013-03-18 14:24:00,52.3,29.3,27.84,SE,135,13.8,13.8,41,0.00,CLR,SKC,0.06,WeatherDisplay:10.37,2013-03-18 18:24:00,
2013-03-18 14:28:00,52.3,29.9,27.85,SE,135,11.5,11.5,42,0.00,CLR,SKC,0.06,WeatherDisplay:10.37,2013-03-18 18:28:00,
2013-03-18 14:29:00,52.3,29.9,27.84,SE,135,11.5,11.5,42,0.00,CLR,SKC,0.06,WeatherDisplay:10.37,2013-03-18 18:29:00,
2013-03-18 14:33:00,52.5,29.5,27.84,SE,135,10.4,10.4,41,0.00,CLR,SKC,0.06,WeatherDisplay:10.37,2013-03-18 18:33:00,
2013-03-18 14:34:00,52.5,29.5,27.84,SE,135,10.4,10.4,41,0.00,CLR,SKC,0.06,WeatherDisplay:10.37,2013-03-18 18:34:00,
2013-03-18 14:38:00,52.7,29.6,27.84,SE,135,10.4,10.4,41,0.00,CLR,SKC,0.06,WeatherDisplay:10.37,2013-03-18 18:38:00,
2013-03-18 14:39:00,52.7,29.0,27.85,SE,135,10.4,10.4,40,0.00,CLR,SKC,0.06,WeatherDisplay:10.37,2013-03-18 18:39:00,
2013-03-18 14:43:00,52.7,29.0,27.84,SE,135,8.1,8.1,40,0.00,CLR,SKC,0.06,WeatherDisplay:10.37,2013-03-18 18:43:00,
2013-03-18 14:44:00,52.7,29.6,27.84,SE,135,5.8,5.8,41,0.00,CLR,SKC,0.06,WeatherDisplay:10.37,2013-03-18 18:44:00,
2013-03-18 14:48:00,52.7,29.0,27.85,ENE,68,12.7,12.7,40,0.00,CLR,SKC,0.06,WeatherDisplay:10.37,2013-03-18 18:48:00,
2013-03-18 14:49:00,52.7,29.6,27.84,ENE,68,12.7,12.7,41,0.00,CLR,SKC,0.06,WeatherDisplay:10.37,2013-03-18 18:49:00,
2013-03-18 14:53:00,52.9,29.8,27.84,South,180,12.1,12.1,41,0.00,CLR,SKC,0.06,WeatherDisplay:10.37,2013-03-18 18:53:00,
2013-03-18 14:54:00,52.9,29.8,27.84,SE,135,12.7,12.7,41,0.00,CLR,SKC,0.06,WeatherDisplay:10.37,2013-03-18 18:54:00,
2013-03-18 14:58:00,52.7,30.8,27.85,SE,135,8.1,8.1,43,0.00,CLR,SKC,0.06,WeatherDisplay:10.37,2013-03-18 18:58:00,
2013-03-18 14:59:00,52.7,30.8,27.84,South,180,8.1,8.1,43,0.00,CLR,SKC,0.06,WeatherDisplay:10.37,2013-03-18 18:59:00,
2013-03-18 15:00:00,52.7,30.8,27.84,South,180,8.1,8.1,43,0.00,CLR,SKC,0.06,WeatherDisplay:10.37,2013-03-18 19:00:00,
2013-03-18 15:03:00,52.7,31.4,27.84,SE,135,5.8,5.8,44,0.00,CLR,SKC,0.06,WeatherDisplay:10.37,2013-03-18 19:03:00,
2013-03-18 15:04:00,52.9,31.5,27.83,SE,135,3.5,3.5,44,0.00,CLR,SKC,0.06,WeatherDisplay:10.37,2013-03-18 19:04:00,
2013-03-18 15:05:00,52.9,31.5,27.83,SE,135,5.8,5.8,44,0.00,CLR,SKC,0.06,WeatherDisplay:10.37,2013-03-18 19:05:00,
2013-03-18 15:08:00,52.7,31.4,27.83,SE,135,5.8,5.8,44,0.00,CLR,SKC,0.06,WeatherDisplay:10.37,2013-03-18 19:08:00,
2013-03-18 15:09:00,52.7,31.4,27.83,SE,135,5.8,5.8,44,0.00,CLR,SKC,0.06,WeatherDisplay:10.37,2013-03-18 19:09:00,
2013-03-18 15:10:00,52.9,31.0,27.83,South,180,11.4,11.4,43,0.00,CLR,SKC,0.06,WeatherDisplay:10.37,2013-03-18 19:10:00,
2013-03-18 15:13:00,52.9,31.0,27.82,SE,135,8.1,8.1,43,0.00,CLR,SKC,0.06,WeatherDisplay:10.37,2013-03-18 19:13:00,
2013-03-18 15:14:00,52.9,31.0,27.82,South,180,8.1,8.1,43,0.00,CLR,SKC,0.06,WeatherDisplay:10.37,2013-03-18 19:14:00,
2013-03-18 15:17:00,52.9,31.0,27.82,SE,135,9.2,9.2,43,0.00,CLR,SKC,0.06,WeatherDisplay:10.37,2013-03-18 19:17:00,
2013-03-18 15:19:00,52.9,31.0,27.82,SE,135,10.4,10.4,43,0.00,CLR,SKC,0.06,WeatherDisplay:10.37,2013-03-18 19:19:00,
2013-03-18 15:22:00,52.9,31.5,27.82,SE,135,4.6,4.6,44,0.00,CLR,SKC,0.06,WeatherDisplay:10.37,2013-03-18 19:22:00,
2013-03-18 15:24:00,52.9,31.0,27.82,SW,225,12.7,12.7,43,0.00,CLR,SKC,0.06,WeatherDisplay:10.37,2013-03-18 19:24:00,
2013-03-18 15:27:00,53.1,31.1,27.82,South,180,6.9,6.9,43,0.00,CLR,SKC,0.06,WeatherDisplay:10.37,2013-03-18 19:27:00,
2013-03-18 15:29:00,53.1,31.1,27.82,ENE,68,6.9,6.9,43,0.00,CLR,SKC,0.06,WeatherDisplay:10.37,2013-03-18 19:29:00,
2013-03-18 15:30:00,53.1,31.1,27.82,ENE,68,6.9,6.9,43,0.00,CLR,SKC,0.06,WeatherDisplay:10.37,2013-03-18 19:30:00,
2013-03-18 15:32:00,53.1,31.1,27.82,SE,135,10.4,10.4,43,0.00,CLR,SKC,0.06,WeatherDisplay:10.37,2013-03-18 19:32:00,
2013-03-18 15:35:00,53.1,31.1,27.82,SE,135,8.1,8.1,43,0.00,CLR,SKC,0.06,WeatherDisplay:10.37,2013-03-18 19:35:00,
2013-03-18 15:37:00,53.1,31.1,27.82,SE,135,8.1,8.1,43,0.00,CLR,SKC,0.06,WeatherDisplay:10.37,2013-03-18 19:37:00,
2013-03-18 15:40:00,53.1,31.1,27.82,SE,135,9.2,9.2,43,0.00,CLR,SKC,0.06,WeatherDisplay:10.37,2013-03-18 19:40:00,
2013-03-18 15:43:00,52.9,31.0,27.81,SE,135,9.2,9.2,43,0.00,CLR,SKC,0.06,WeatherDisplay:10.37,2013-03-18 19:43:00,
2013-03-18 15:45:00,53.1,31.1,27.82,SE,135,10.4,10.4,43,0.00,CLR,SKC,0.06,WeatherDisplay:10.37,2013-03-18 19:45:00,
2013-03-18 15:48:00,53.2,31.9,27.82,South,180,8.1,8.1,44,0.00,CLR,SKC,0.06,WeatherDisplay:10.37,2013-03-18 19:48:00,
2013-03-18 15:50:00,53.2,31.9,27.82,South,180,8.1,8.1,44,0.00,CLR,SKC,0.06,WeatherDisplay:10.37,2013-03-18 19:50:00,
2013-03-18 15:53:00,53.2,31.9,27.81,SE,135,11.5,11.5,44,0.00,CLR,SKC,0.06,WeatherDisplay:10.37,2013-03-18 19:53:00,
2013-03-18 15:55:00,53.2,31.9,27.82,South,180,10.4,10.4,44,0.00,CLR,SKC,0.06,WeatherDisplay:10.37,2013-03-18 19:55:00,
2013-03-18 15:58:00,53.1,32.3,27.82,SE,135,5.8,5.8,45,0.01,RA,SKC,0.07,WeatherDisplay:10.37,2013-03-18 19:58:00,
2013-03-18 16:00:00,53.1,32.8,27.82,South,180,4.6,4.6,46,0.01,RA,SKC,0.07,WeatherDisplay:10.37,2013-03-18 20:00:00,
2013-03-18 16:02:00,53.1,32.8,27.82,ENE,68,5.8,5.8,46,0.01,RA,SKC,0.07,WeatherDisplay:10.37,2013-03-18 20:02:00,
2013-03-18 16:03:00,53.1,32.8,27.82,SW,225,5.8,5.8,46,0.01,RA,SKC,0.07,WeatherDisplay:10.37,2013-03-18 20:03:00,
2013-03-18 16:05:00,53.1,33.3,27.82,SE,135,4.6,4.6,47,0.01,RA,SKC,0.07,WeatherDisplay:10.37,2013-03-18 20:05:00,
2013-03-18 16:06:00,53.1,33.3,27.82,SE,135,8.1,8.1,47,0.01,RA,SKC,0.07,WeatherDisplay:10.37,2013-03-18 20:06:00,
2013-03-18 16:07:00,53.1,32.8,27.82,South,180,10.4,10.4,46,0.01,RA,SKC,0.07,WeatherDisplay:10.37,2013-03-18 20:07:00,
2013-03-18 16:08:00,53.1,32.8,27.82,SE,135,11.5,11.5,46,0.01,,SKC,0.07,WeatherDisplay:10.37,2013-03-18 20:08:00,
2013-03-18 16:11:00,53.1,32.8,27.83,SE,135,6.9,6.9,46,0.01,CLR,SKC,0.07,WeatherDisplay:10.37,2013-03-18 20:11:00,
2013-03-18 16:13:00,53.1,33.3,27.82,SE,135,5.8,0.0,47,0.01,CLR,SKC,0.07,WeatherDisplay:10.37,2013-03-18 20:13:00,
2013-03-18 16:16:00,53.1,33.3,27.83,SE,135,8.1,8.1,47,0.01,CLR,SKC,0.07,WeatherDisplay:10.37,2013-03-18 20:16:00,
2013-03-18 16:18:00,53.1,33.9,27.83,SW,225,8.1,8.1,48,0.01,CLR,SKC,0.07,WeatherDisplay:10.37,2013-03-18 20:18:00,
2013-03-18 16:21:00,53.1,33.3,27.83,South,180,8.1,8.1,47,0.01,CLR,SKC,0.07,WeatherDisplay:10.37,2013-03-18 20:21:00,
2013-03-18 16:22:00,53.2,34.0,27.83,SW,225,5.8,5.8,48,0.01,CLR,SKC,0.07,WeatherDisplay:10.37,2013-03-18 20:22:00,
2013-03-18 16:23:00,53.1,33.9,27.83,SE,135,5.8,5.8,48,0.01,CLR,SKC,0.07,WeatherDisplay:10.37,2013-03-18 20:23:00,
2013-03-18 16:26:00,53.2,34.0,27.83,SE,135,5.8,5.8,48,0.02,RA,SKC,0.08,WeatherDisplay:10.37,2013-03-18 20:26:00,
2013-03-18 16:27:00,53.2,34.0,27.82,SE,135,5.8,5.8,48,0.02,RA,SKC,0.08,WeatherDisplay:10.37,2013-03-18 20:27:00,
2013-03-18 16:28:00,53.2,34.0,27.83,SE,135,5.8,0.0,48,0.02,RA,SKC,0.08,WeatherDisplay:10.37,2013-03-18 20:28:00,
2013-03-18 16:29:00,53.2,34.0,27.83,SE,135,3.5,0.0,48,0.02,RA,SKC,0.08,WeatherDisplay:10.37,2013-03-18 20:29:00,
2013-03-18 16:31:00,53.1,34.4,27.83,SE,135,2.3,0.0,49,0.04,RA,SKC,0.09,WeatherDisplay:10.37,2013-03-18 20:31:00,
2013-03-18 16:32:00,53.1,34.4,27.83,SE,135,0.0,0.0,49,0.04,RA,SKC,0.09,WeatherDisplay:10.37,2013-03-18 20:32:00,
2013-03-18 16:33:00,53.2,35.1,27.83,SE,135,0.0,0.0,50,0.04,RA,SKC,0.09,WeatherDisplay:10.37,2013-03-18 20:33:00,
2013-03-18 16:34:00,53.1,34.9,27.83,SE,135,0.0,0.0,50,0.04,RA,SKC,0.09,WeatherDisplay:10.37,2013-03-18 20:34:00,
2013-03-18 16:37:00,53.1,34.9,27.83,SE,135,0.0,0.0,50,0.04,RA,SKC,0.09,WeatherDisplay:10.37,2013-03-18 20:37:00,
2013-03-18 16:39:00,53.1,35.4,27.82,SW,225,2.3,2.3,51,0.04,RA,SKC,0.09,WeatherDisplay:10.37,2013-03-18 20:39:00,
2013-03-18 16:42:00,53.1,35.4,27.83,SE,135,5.8,5.8,51,0.04,,SKC,0.09,WeatherDisplay:10.37,2013-03-18 20:42:00,
2013-03-18 16:44:00,53.1,35.4,27.83,SE,135,5.8,0.0,51,0.04,CLR,SKC,0.09,WeatherDisplay:10.37,2013-03-18 20:44:00,
2013-03-18 16:45:00,53.1,35.4,27.83,SE,135,5.8,0.0,51,0.04,CLR,SKC,0.09,WeatherDisplay:10.37,2013-03-18 20:45:00,
2013-03-18 16:47:00,53.1,34.9,27.83,SE,135,3.5,3.5,50,0.04,CLR,SKC,0.09,WeatherDisplay:10.37,2013-03-18 20:47:00,
2013-03-18 16:50:00,53.1,34.9,27.83,SE,135,5.8,5.8,50,0.04,CLR,SKC,0.09,WeatherDisplay:10.37,2013-03-18 20:50:00,
2013-03-18 16:52:00,53.2,35.6,27.82,SE,135,5.8,5.8,51,0.04,CLR,SKC,0.11,WeatherDisplay:10.37,2013-03-18 20:52:00,
2013-03-18 16:55:00,53.2,35.6,27.82,SE,135,10.4,10.4,51,0.05,RA,SKC,0.11,WeatherDisplay:10.37,2013-03-18 20:55:00,
2013-03-18 16:57:00,53.1,34.9,27.82,ENE,68,9.2,9.2,50,0.05,RA,SKC,0.11,WeatherDisplay:10.37,2013-03-18 20:57:00,
2013-03-18 16:58:00,53.1,34.9,27.82,ENE,68,4.6,4.6,50,0.04,RA,SKC,0.11,WeatherDisplay:10.37,2013-03-18 20:58:00,
2013-03-18 17:00:00,53.1,34.9,27.82,NE,45,6.9,0.0,50,0.04,RA,SKC,0.11,WeatherDisplay:10.37,2013-03-18 21:00:00,
2013-03-18 17:02:00,53.1,35.4,27.83,South,180,2.3,3.1,51,0.04,RA,SKC,0.11,WeatherDisplay:10.37,2013-03-18 21:02:00,
2013-03-18 17:03:00,53.1,35.4,27.83,South,180,6.9,6.9,51,0.04,,SKC,0.11,WeatherDisplay:10.37,2013-03-18 21:03:00,
2013-03-18 17:05:00,53.2,35.1,27.82,South,180,0.0,0.0,50,0.05,RA,SKC,0.12,WeatherDisplay:10.37,2013-03-18 21:05:00,
2013-03-18 17:08:00,53.2,35.6,27.81,ENE,68,6.9,0.0,51,0.05,RA,SKC,0.12,WeatherDisplay:10.37,2013-03-18 21:08:00,
2013-03-18 17:10:00,53.4,35.7,27.82,NE,45,5.8,5.8,51,0.05,RA,SKC,0.12,WeatherDisplay:10.37,2013-03-18 21:10:00,
2013-03-18 17:13:00,53.6,36.4,27.82,SE,135,5.8,5.8,52,0.05,RA,SKC,0.12,WeatherDisplay:10.37,2013-03-18 21:13:00,
2013-03-18 17:15:00,53.6,35.9,27.82,South,180,5.8,5.8,51,0.05,,SKC,0.12,WeatherDisplay:10.37,2013-03-18 21:15:00,
2013-03-18 17:18:00,53.4,35.2,27.82,SE,135,12.7,12.7,50,0.05,CLR,SKC,0.12,WeatherDisplay:10.37,2013-03-18 21:18:00,
2013-03-18 17:20:00,53.4,34.7,27.82,SE,135,10.4,10.4,49,0.05,CLR,SKC,0.12,WeatherDisplay:10.37,2013-03-18 21:20:00,
2013-03-18 17:21:00,53.4,34.7,27.82,SE,135,5.8,5.8,49,0.05,CLR,SKC,0.12,WeatherDisplay:10.37,2013-03-18 21:21:00,
2013-03-18 17:23:00,53.4,34.7,27.81,ENE,68,5.8,5.8,49,0.05,CLR,SKC,0.12,WeatherDisplay:10.37,2013-03-18 21:23:00,
2013-03-18 17:24:00,53.6,34.9,27.81,ENE,68,3.5,0.0,49,0.06,RA,SKC,0.13,WeatherDisplay:10.37,2013-03-18 21:24:00,
2013-03-18 17:26:00,53.4,35.2,27.81,NE,45,6.9,6.9,50,0.05,RA,SKC,0.13,WeatherDisplay:10.37,2013-03-18 21:26:00,
2013-03-18 17:28:00,53.1,34.9,27.81,SE,135,8.1,8.1,50,0.05,RA,SKC,0.14,WeatherDisplay:10.37,2013-03-18 21:28:00,
2013-03-18 17:29:00,53.1,35.4,27.81,ENE,68,8.1,8.1,51,0.06,RA,SKC,0.14,WeatherDisplay:10.37,2013-03-18 21:29:00,
2013-03-18 17:32:00,52.7,35.1,27.83,NW,315,8.1,8.1,51,0.06,RA,SKC,0.15,WeatherDisplay:10.37,2013-03-18 21:32:00,
2013-03-18 17:34:00,52.7,36.0,27.88,North,0,17.3,17.3,53,0.06,RA,SKC,0.15,WeatherDisplay:10.37,2013-03-18 21:34:00,
2013-03-18 17:37:00,52.7,37.0,27.88,NW,315,13.8,13.8,55,0.17,RA,SKC,0.26,WeatherDisplay:10.37,2013-03-18 21:37:00,
2013-03-18 17:39:00,52.5,37.3,27.89,SW,225,9.2,0.0,56,0.18,RA,SKC,0.27,WeatherDisplay:10.37,2013-03-18 21:39:00,
2013-03-18 17:40:00,52.3,37.1,27.88,West,270,4.6,4.6,56,0.18,RA,SKC,0.27,WeatherDisplay:10.37,2013-03-18 21:40:00,
2013-03-18 17:42:00,52.5,37.3,27.88,ENE,68,2.3,0.0,56,0.18,RA,SKC,0.27,WeatherDisplay:10.37,2013-03-18 21:42:00,
2013-03-18 17:44:00,52.3,37.1,27.89,North,0,3.5,0.0,56,0.19,RA,SKC,0.28,WeatherDisplay:10.37,2013-03-18 21:44:00,
2013-03-18 17:45:00,52.3,37.1,27.89,North,0,3.5,0.0,56,0.19,RA,SKC,0.28,WeatherDisplay:10.37,2013-03-18 21:45:00,
2013-03-18 17:47:00,52.3,37.5,27.88,North,0,10.4,10.4,57,0.20,RA,SKC,0.30,WeatherDisplay:10.37,2013-03-18 21:47:00,
2013-03-18 17:50:00,52.3,37.5,27.88,North,0,10.4,10.4,57,0.20,RA,SKC,0.30,WeatherDisplay:10.37,2013-03-18 21:50:00,
2013-03-18 17:52:00,52.3,37.5,27.87,North,0,10.4,0.0,57,0.21,RA,SKC,0.31,WeatherDisplay:10.37,2013-03-18 21:52:00,
2013-03-18 17:55:00,52.2,37.4,27.87,NE,45,3.5,0.0,57,0.21,RA,SKC,0.32,WeatherDisplay:10.37,2013-03-18 21:55:00,
2013-03-18 17:57:00,52.2,37.8,27.86,NE,45,2.3,2.3,58,0.21,RA,SKC,0.32,WeatherDisplay:10.37,2013-03-18 21:57:00,
2013-03-18 17:58:00,52.2,37.8,27.86,NE,45,2.3,2.3,58,0.21,RA,SKC,0.32,WeatherDisplay:10.37,2013-03-18 21:58:00,
2013-03-18 18:00:00,52.2,37.8,27.85,NW,315,1.1,0.0,58,0.21,RA,SKC,0.32,WeatherDisplay:10.37,2013-03-18 22:00:00,
2013-03-18 18:03:00,52.2,37.8,27.85,NE,45,1.1,0.0,58,0.21,RA,SKC,0.32,WeatherDisplay:10.37,2013-03-18 22:03:00,
2013-03-18 18:05:00,52.2,37.8,27.85,NE,45,1.1,0.0,58,0.21,RA,SKC,0.33,WeatherDisplay:10.37,2013-03-18 22:05:00,
2013-03-18 18:08:00,52.0,38.1,27.86,NW,315,1.1,0.0,59,0.21,RA,SKC,0.33,WeatherDisplay:10.37,2013-03-18 22:08:00,
2013-03-18 18:10:00,52.0,38.5,27.86,West,270,0.0,0.0,60,0.21,RA,SKC,0.33,WeatherDisplay:10.37,2013-03-18 22:10:00,
2013-03-18 18:13:00,51.8,38.3,27.86,West,270,0.0,0.0,60,0.21,RA,SKC,0.33,WeatherDisplay:10.37,2013-03-18 22:13:00,
2013-03-18 18:15:00,52.0,38.5,27.86,North,0,0.0,0.0,60,0.21,,SKC,0.33,WeatherDisplay:10.37,2013-03-18 22:15:00,
2013-03-18 18:18:00,51.8,38.3,27.85,NE,45,0.0,0.0,60,0.22,RA,SKC,0.34,WeatherDisplay:10.37,2013-03-18 22:18:00,
2013-03-18 18:20:00,51.8,38.3,27.85,SE,135,1.1,0.0,60,0.22,RA,SKC,0.34,WeatherDisplay:10.37,2013-03-18 22:20:00,
2013-03-18 18:23:00,51.8,38.3,27.84,SE,135,1.1,0.0,60,0.22,RA,SKC,0.34,WeatherDisplay:10.37,2013-03-18 22:23:00,
2013-03-18 18:24:00,51.8,38.3,27.85,SE,135,1.1,0.0,60,0.21,RA,SKC,0.34,WeatherDisplay:10.37,2013-03-18 22:24:00,
2013-03-18 18:25:00,51.8,38.3,27.85,SE,135,1.1,0.0,60,0.21,RA,SKC,0.34,WeatherDisplay:10.37,2013-03-18 22:25:00,
2013-03-18 18:26:00,51.8,38.3,27.86,SE,135,1.1,0.0,60,0.21,RA,SKC,0.34,WeatherDisplay:10.37,2013-03-18 22:26:00,
2013-03-18 18:29:00,51.8,38.3,27.85,SE,135,0.0,0.0,60,0.21,RA,SKC,0.35,WeatherDisplay:10.37,2013-03-18 22:29:00,
2013-03-18 18:30:00,51.8,38.3,27.85,SE,135,0.0,0.0,60,0.21,RA,SKC,0.35,WeatherDisplay:10.37,2013-03-18 22:30:00,
2013-03-18 18:31:00,51.8,38.8,27.85,SE,135,0.0,0.0,61,0.20,RA,SKC,0.35,WeatherDisplay:10.37,2013-03-18 22:31:00,
2013-03-18 18:34:00,51.8,38.8,27.86,SE,135,0.0,0.0,61,0.20,RA,SKC,0.35,WeatherDisplay:10.37,2013-03-18 22:34:00,
2013-03-18 18:35:00,51.6,38.6,27.86,SE,135,0.0,0.0,61,0.19,RA,SKC,0.35,WeatherDisplay:10.37,2013-03-18 22:35:00,
2013-03-18 18:36:00,51.6,38.6,27.87,SE,135,0.0,0.0,61,0.14,RA,SKC,0.35,WeatherDisplay:10.37,2013-03-18 22:36:00,
2013-03-18 18:39:00,51.8,39.2,27.87,WSW,248,2.2,0.0,62,0.08,CLR,SKC,0.35,WeatherDisplay:10.37,2013-03-18 22:39:00,
2013-03-18 18:41:00,51.6,39.0,27.87,NW,315,2.3,0.0,62,0.08,CLR,SKC,0.35,WeatherDisplay:10.37,2013-03-18 22:41:00,
2013-03-18 18:44:00,51.6,39.0,27.88,North,0,3.5,3.5,62,0.07,CLR,SKC,0.35,WeatherDisplay:10.37,2013-03-18 22:44:00,
2013-03-18 18:46:00,51.6,39.0,27.89,North,0,3.5,0.0,62,0.07,CLR,SKC,0.35,WeatherDisplay:10.37,2013-03-18 22:46:00,
2013-03-18 18:49:00,51.6,39.4,27.89,West,270,0.0,0.0,63,0.07,RA,SKC,0.37,WeatherDisplay:10.37,2013-03-18 22:49:00,
2013-03-18 18:51:00,51.6,39.4,27.90,SW,225,0.0,0.0,63,0.07,RA,SKC,0.37,WeatherDisplay:10.37,2013-03-18 22:51:00,
2013-03-18 18:54:00,51.6,39.4,27.90,South,180,1.1,0.0,63,0.06,RA,SKC,0.38,WeatherDisplay:10.37,2013-03-18 22:54:00,
2013-03-18 18:56:00,51.6,39.4,27.90,SE,135,1.1,0.0,63,0.06,RA,SKC,0.38,WeatherDisplay:10.37,2013-03-18 22:56:00,
2013-03-18 18:57:00,51.6,39.4,27.90,SE,135,1.1,1.6,63,0.06,RA,SKC,0.39,WeatherDisplay:10.37,2013-03-18 22:57:00,
2013-03-18 18:59:00,51.8,39.6,27.90,South,180,2.3,0.0,63,0.07,RA,SKC,0.40,WeatherDisplay:10.37,2013-03-18 22:59:00,
2013-03-18 19:01:00,51.8,40.0,27.91,West,270,1.1,0.0,64,0.08,RA,SKC,0.40,WeatherDisplay:10.37,2013-03-18 23:01:00,
2013-03-18 19:02:00,51.8,40.0,27.91,West,270,1.1,0.0,64,0.08,RA,SKC,0.40,WeatherDisplay:10.37,2013-03-18 23:02:00,
2013-03-18 19:05:00,51.8,40.0,27.91,West,270,1.1,0.0,64,0.08,RA,SKC,0.41,WeatherDisplay:10.37,2013-03-18 23:05:00,
2013-03-18 19:06:00,51.8,40.0,27.91,WSW,248,0.0,0.0,64,0.09,RA,SKC,0.43,WeatherDisplay:10.37,2013-03-18 23:06:00,
2013-03-18 19:07:00,51.8,40.0,27.91,South,180,0.0,0.7,64,0.09,RA,SKC,0.44,WeatherDisplay:10.37,2013-03-18 23:07:00,
2013-03-18 19:10:00,51.8,40.0,27.91,SW,225,3.5,0.0,64,0.12,RA,SKC,0.45,WeatherDisplay:10.37,2013-03-18 23:10:00,
2013-03-18 19:12:00,51.8,40.0,27.91,SW,225,2.3,0.0,64,0.13,RA,SKC,0.46,WeatherDisplay:10.37,2013-03-18 23:12:00,
2013-03-18 19:15:00,51.8,40.0,27.91,SE,135,2.3,0.0,64,0.14,RA,SKC,0.47,WeatherDisplay:10.37,2013-03-18 23:15:00,
2013-03-18 19:17:00,51.6,39.8,27.91,SW,225,0.0,0.0,64,0.15,RA,SKC,0.48,WeatherDisplay:10.37,2013-03-18 23:17:00,
2013-03-18 19:20:00,51.6,39.8,27.90,West,270,1.1,0.0,64,0.15,RA,SKC,0.50,WeatherDisplay:10.37,2013-03-18 23:20:00,
2013-03-18 19:22:00,51.6,39.8,27.89,West,270,0.0,0.0,64,0.17,RA,SKC,0.51,WeatherDisplay:10.37,2013-03-18 23:22:00,
2013-03-18 19:23:00,51.6,39.8,27.89,West,270,0.0,0.0,64,0.17,RA,SKC,0.51,WeatherDisplay:10.37,2013-03-18 23:23:00,
2013-03-18 19:25:00,51.6,39.8,27.87,West,270,0.0,0.0,64,0.17,RA,SKC,0.51,WeatherDisplay:10.37,2013-03-18 23:25:00,
2013-03-18 19:27:00,51.6,40.2,27.85,ENE,68,0.0,0.0,65,0.15,RA,SKC,0.52,WeatherDisplay:10.37,2013-03-18 23:27:00,
2013-03-18 19:28:00,51.6,40.2,27.81,ENE,68,2.3,2.3,65,0.17,RA,SKC,0.53,WeatherDisplay:10.37,2013-03-18 23:28:00,
2013-03-18 19:30:00,51.4,40.1,27.79,NE,45,2.3,0.0,65,0.18,RA,SKC,0.53,WeatherDisplay:10.37,2013-03-18 23:30:00,
2013-03-18 19:32:00,51.4,40.1,27.81,South,180,3.5,3.5,65,0.18,RA,SKC,0.53,WeatherDisplay:10.37,2013-03-18 23:32:00,
2013-03-18 19:34:00,51.4,40.1,27.81,SE,135,7.6,7.6,65,0.18,RA,SKC,0.53,WeatherDisplay:10.37,2013-03-18 23:34:00,
2013-03-18 19:35:00,51.4,40.1,27.81,SE,135,8.1,8.1,65,0.18,RA,SKC,0.53,WeatherDisplay:10.37,2013-03-18 23:35:00,
2013-03-18 19:37:00,51.6,40.2,27.81,SE,135,9.2,9.2,65,0.18,RA,SKC,0.53,WeatherDisplay:10.37,2013-03-18 23:37:00,
2013-03-18 19:39:00,51.6,40.2,27.81,SE,135,10.4,10.4,65,0.18,,SKC,0.53,WeatherDisplay:10.37,2013-03-18 23:39:00,
2013-03-18 19:40:00,51.6,40.2,27.81,SE,135,12.7,12.7,65,0.18,,SKC,0.53,WeatherDisplay:10.37,2013-03-18 23:40:00,
2013-03-18 19:42:00,51.6,40.2,27.81,SE,135,8.1,8.1,65,0.18,CLR,SKC,0.53,WeatherDisplay:10.37,2013-03-18 23:42:00,
2013-03-18 19:44:00,51.6,39.8,27.81,SE,135,5.8,5.8,64,0.18,CLR,SKC,0.53,WeatherDisplay:10.37,2013-03-18 23:44:00,
2013-03-18 19:45:00,51.6,39.8,27.81,SSW,202,10.4,10.4,64,0.18,CLR,SKC,0.53,WeatherDisplay:10.37,2013-03-18 23:45:00,
2013-03-18 19:47:00,51.8,40.0,27.81,SE,135,8.1,8.1,64,0.18,CLR,SKC,0.53,WeatherDisplay:10.37,2013-03-18 23:47:00,
2013-03-18 19:49:00,51.8,39.6,27.81,SE,135,6.9,6.9,63,0.17,CLR,SKC,0.53,WeatherDisplay:10.37,2013-03-18 23:49:00,
2013-03-18 19:50:00,51.8,39.6,27.80,SE,135,8.1,0.0,63,0.17,CLR,SKC,0.53,WeatherDisplay:10.37,2013-03-18 23:50:00,
2013-03-18 19:53:00,51.8,39.6,27.81,ENE,68,9.2,9.2,63,0.15,CLR,SKC,0.53,WeatherDisplay:10.37,2013-03-18 23:53:00,
2013-03-18 19:54:00,52.0,39.4,27.81,ENE,68,10.4,10.4,62,0.15,CLR,SKC,0.53,WeatherDisplay:10.37,2013-03-18 23:54:00,
2013-03-18 19:55:00,52.0,38.9,27.81,SE,135,10.4,10.4,61,0.15,CLR,SKC,0.53,WeatherDisplay:10.37,2013-03-18 23:55:00,
2013-03-18 19:58:00,52.0,38.9,27.81,ENE,68,8.1,8.1,61,0.14,CLR,SKC,0.53,WeatherDisplay:10.37,2013-03-18 23:58:00,
2013-03-18 20:00:00,52.0,38.5,27.80,East,100,3.0,10.0,60,0.00,CLR,SKC,0.53,WeatherDisplay:10.37,2013-03-19 00:00:00,
2013-03-18 20:01:00,52.0,38.5,27.81,ENE,68,8.1,8.1,60,0.13,CLR,SKC,0.53,WeatherDisplay:10.37,2013-03-19 00:01:00,
2013-03-18 20:03:00,52.0,38.5,27.81,SE,135,3.5,3.5,60,0.13,CLR,SKC,0.53,WeatherDisplay:10.37,2013-03-19 00:03:00,
2013-03-18 20:05:00,52.0,38.5,27.80,NE,45,4.6,0.0,60,0.12,CLR,SKC,0.53,WeatherDisplay:10.37,2013-03-19 00:05:00,
2013-03-18 20:06:00,51.8,38.3,27.81,NE,45,3.5,0.0,60,0.11,CLR,SKC,0.53,WeatherDisplay:10.37,2013-03-19 00:06:00,
2013-03-18 20:07:00,51.8,38.3,27.81,NE,45,1.1,0.0,60,0.11,CLR,SKC,0.53,WeatherDisplay:10.37,2013-03-19 00:07:00,
2013-03-18 20:09:00,51.8,38.3,27.81,WSW,248,1.1,0.0,60,0.09,CLR,SKC,0.53,WeatherDisplay:10.37,2013-03-19 00:09:00,
2013-03-18 20:10:00,51.8,38.3,27.81,ENE,68,0.0,0.7,60,0.08,CLR,SKC,0.53,WeatherDisplay:10.37,2013-03-19 00:10:00,
2013-03-18 20:11:00,51.6,38.2,27.82,ENE,68,5.8,5.8,60,0.08,CLR,SKC,0.53,WeatherDisplay:10.37,2013-03-19 00:11:00,
2013-03-18 20:12:00,51.6,38.6,27.81,North,0,3.5,3.5,61,0.07,CLR,SKC,0.53,WeatherDisplay:10.37,2013-03-19 00:12:00,
2013-03-18 20:14:00,51.6,38.2,27.82,ENE,68,3.5,0.0,60,0.06,CLR,SKC,0.53,WeatherDisplay:10.37,2013-03-19 00:14:00,
2013-03-18 20:15:00,51.6,38.2,27.82,South,180,1.1,0.0,60,0.06,CLR,SKC,0.53,WeatherDisplay:10.37,2013-03-19 00:15:00,
2013-03-18 20:16:00,51.6,38.2,27.82,ENE,68,1.1,0.0,60,0.06,CLR,SKC,0.53,WeatherDisplay:10.37,2013-03-19 00:16:00,
2013-03-18 20:17:00,51.6,38.2,27.82,SE,135,1.1,0.0,60,0.05,CLR,SKC,0.53,WeatherDisplay:10.37,2013-03-19 00:17:00,
2013-03-18 20:19:00,51.6,38.2,27.81,SE,135,2.3,0.0,60,0.04,CLR,SKC,0.53,WeatherDisplay:10.37,2013-03-19 00:19:00,
2013-03-18 20:20:00,51.8,38.3,27.82,South,180,1.1,0.0,60,0.04,CLR,SKC,0.53,WeatherDisplay:10.37,2013-03-19 00:20:00,
2013-03-18 20:22:00,51.8,38.3,27.82,SE,135,4.6,4.6,60,0.02,CLR,SKC,0.53,WeatherDisplay:10.37,2013-03-19 00:22:00,
2013-03-18 20:23:00,51.8,38.3,27.82,SE,135,4.6,4.6,60,0.02,CLR,SKC,0.53,WeatherDisplay:10.37,2013-03-19 00:23:00,
2013-03-18 20:24:00,51.8,38.3,27.82,SE,135,4.6,4.6,60,0.02,CLR,SKC,0.53,WeatherDisplay:10.37,2013-03-19 00:24:00,
2013-03-18 20:26:00,51.8,38.3,27.83,SE,135,4.6,4.6,60,0.02,CLR,SKC,0.53,WeatherDisplay:10.37,2013-03-19 00:26:00,
2013-03-18 20:27:00,51.8,38.3,27.82,SE,135,4.6,4.6,60,0.02,CLR,SKC,0.53,WeatherDisplay:10.37,2013-03-19 00:27:00,
2013-03-18 20:28:00,51.8,38.3,27.82,SE,135,4.6,4.6,60,0.01,CLR,SKC,0.53,WeatherDisplay:10.37,2013-03-19 00:28:00,
2013-03-18 20:29:00,51.6,37.7,27.82,ENE,68,4.6,0.0,59,0.00,CLR,SKC,0.53,WeatherDisplay:10.37,2013-03-19 00:29:00,
2013-03-18 20:31:00,51.6,38.2,27.82,NE,45,0.0,0.0,60,0.00,CLR,SKC,0.53,WeatherDisplay:10.37,2013-03-19 00:31:00,
2013-03-18 20:32:00,51.4,37.6,27.82,NE,45,0.0,0.0,59,0.00,CLR,SKC,0.53,WeatherDisplay:10.37,2013-03-19 00:32:00,
2013-03-18 20:33:00,51.4,38.0,27.83,NE,45,0.0,0.0,60,0.00,CLR,SKC,0.53,WeatherDisplay:10.37,2013-03-19 00:33:00,
2013-03-18 20:34:00,51.3,37.8,27.82,North,0,0.0,0.0,60,0.00,CLR,SKC,0.53,WeatherDisplay:10.37,2013-03-19 00:34:00,
2013-03-18 20:37:00,51.1,37.7,27.81,NE,45,0.0,0.0,60,0.01,RA,SKC,0.54,WeatherDisplay:10.37,2013-03-19 00:37:00,
2013-03-18 20:38:00,51.1,37.7,27.81,NE,45,0.0,0.0,60,0.01,RA,SKC,0.54,WeatherDisplay:10.37,2013-03-19 00:38:00,
2013-03-18 20:39:00,50.9,37.5,27.81,North,0,1.1,0.0,60,0.01,RA,SKC,0.54,WeatherDisplay:10.37,2013-03-19 00:39:00,
2013-03-18 20:43:00,50.9,37.5,27.81,NW,315,4.6,0.0,60,0.01,RA,SKC,0.54,WeatherDisplay:10.37,2013-03-19 00:43:00,
2013-03-18 20:45:00,50.9,37.9,27.81,North,0,5.8,5.8,61,0.01,RA,SKC,0.54,WeatherDisplay:10.37,2013-03-19 00:45:00,
2013-03-18 20:48:00,50.7,37.8,27.80,North,0,0.0,0.0,61,0.01,CLR,SKC,0.54,WeatherDisplay:10.37,2013-03-19 00:48:00,
2013-03-18 20:49:00,50.5,37.6,27.81,NE,45,0.0,0.0,61,0.01,CLR,SKC,0.54,WeatherDisplay:10.37,2013-03-19 00:49:00,
2013-03-18 20:50:00,50.5,37.6,27.80,North,0,0.0,1.6,61,0.01,CLR,SKC,0.54,WeatherDisplay:10.37,2013-03-19 00:50:00,
2013-03-18 20:53:00,50.4,37.8,27.80,North,0,0.0,0.0,62,0.01,CLR,SKC,0.54,WeatherDisplay:10.37,2013-03-19 00:53:00,
2013-03-18 20:54:00,50.2,37.7,27.80,NE,45,0.0,0.0,62,0.01,CLR,SKC,0.54,WeatherDisplay:10.37,2013-03-19 00:54:00,
2013-03-18 20:55:00,50.2,37.7,27.81,North,0,0.0,0.0,62,0.01,CLR,SKC,0.54,WeatherDisplay:10.37,2013-03-19 00:55:00,
2013-03-18 20:58:00,50.2,37.7,27.81,North,0,0.0,0.0,62,0.01,CLR,SKC,0.54,WeatherDisplay:10.37,2013-03-19 00:58:00,
2013-03-18 20:59:00,50.2,37.7,27.81,North,0,0.0,0.0,62,0.01,CLR,SKC,0.54,WeatherDisplay:10.37,2013-03-19 00:59:00,
2013-03-18 21:00:00,50.0,37.5,27.81,NE,45,0.0,0.0,62,0.01,CLR,SKC,0.54,WeatherDisplay:10.37,2013-03-19 01:00:00,
2013-03-18 21:03:00,50.0,37.5,27.80,South,180,0.0,0.0,62,0.01,CLR,SKC,0.54,WeatherDisplay:10.37,2013-03-19 01:03:00,
2013-03-18 21:04:00,50.0,37.5,27.81,South,180,0.0,0.0,62,0.01,CLR,SKC,0.54,WeatherDisplay:10.37,2013-03-19 01:04:00,
2013-03-18 21:05:00,49.8,37.3,27.81,South,180,0.0,0.0,62,0.01,CLR,SKC,0.54,WeatherDisplay:10.37,2013-03-19 01:05:00,
2013-03-18 21:09:00,49.8,37.3,27.81,SE,135,0.0,0.0,62,0.01,CLR,SKC,0.54,WeatherDisplay:10.37,2013-03-19 01:09:00,
2013-03-18 21:10:00,49.8,37.3,27.81,SE,135,0.0,0.0,62,0.01,CLR,SKC,0.54,WeatherDisplay:10.37,2013-03-19 01:10:00,
2013-03-18 21:14:00,49.6,37.1,27.81,SE,135,0.0,0.0,62,0.01,CLR,SKC,0.54,WeatherDisplay:10.37,2013-03-19 01:14:00,
2013-03-18 21:15:00,49.6,37.1,27.81,SE,135,0.0,0.0,62,0.01,CLR,SKC,0.54,WeatherDisplay:10.37,2013-03-19 01:15:00,
2013-03-18 21:19:00,49.6,37.1,27.82,SE,135,0.0,0.0,62,0.01,CLR,SKC,0.54,WeatherDisplay:10.37,2013-03-19 01:19:00,
2013-03-18 21:20:00,49.6,37.1,27.81,SE,135,0.0,0.0,62,0.01,CLR,SKC,0.54,WeatherDisplay:10.37,2013-03-19 01:20:00,
2013-03-18 21:24:00,48.9,36.5,27.82,SE,135,0.0,0.0,62,0.01,CLR,SKC,0.54,WeatherDisplay:10.37,2013-03-19 01:24:00,
2013-03-18 21:25:00,48.9,36.5,27.82,SE,135,0.0,0.0,62,0.01,CLR,SKC,0.54,WeatherDisplay:10.37,2013-03-19 01:25:00,
2013-03-18 21:26:00,48.9,36.5,27.82,SE,135,0.0,0.0,62,0.01,CLR,SKC,0.54,WeatherDisplay:10.37,2013-03-19 01:26:00,
2013-03-18 21:29:00,48.7,36.3,27.82,SE,135,0.0,0.0,62,0.01,CLR,SKC,0.54,WeatherDisplay:10.37,2013-03-19 01:29:00,
2013-03-18 21:30:00,48.7,36.3,27.82,SE,135,0.0,0.0,62,0.01,CLR,SKC,0.54,WeatherDisplay:10.37,2013-03-19 01:30:00,
2013-03-18 21:31:00,48.7,36.3,27.82,SE,135,0.0,0.0,62,0.01,CLR,SKC,0.54,WeatherDisplay:10.37,2013-03-19 01:31:00,
2013-03-18 21:34:00,48.6,36.1,27.82,SE,135,0.0,0.0,62,0.01,CLR,SKC,0.54,WeatherDisplay:10.37,2013-03-19 01:34:00,
2013-03-18 21:35:00,48.6,36.1,27.82,SE,135,0.0,0.0,62,0.01,CLR,SKC,0.54,WeatherDisplay:10.37,2013-03-19 01:35:00,
2013-03-18 21:37:00,48.4,36.4,27.82,North,0,0.0,0.0,63,0.00,CLR,SKC,0.54,WeatherDisplay:10.37,2013-03-19 01:37:00,
2013-03-18 21:39:00,48.2,35.8,27.82,North,0,0.0,0.0,62,0.00,CLR,SKC,0.54,WeatherDisplay:10.37,2013-03-19 01:39:00,
2013-03-18 21:40:00,48.2,35.8,27.82,North,0,0.0,0.0,62,0.00,CLR,SKC,0.54,WeatherDisplay:10.37,2013-03-19 01:40:00,
2013-03-18 21:43:00,48.0,35.6,27.82,North,0,0.0,0.0,62,0.00,CLR,SKC,0.54,WeatherDisplay:10.37,2013-03-19 01:43:00,
2013-03-18 21:44:00,48.0,36.0,27.82,NE,45,0.0,0.0,63,0.00,CLR,SKC,0.54,WeatherDisplay:10.37,2013-03-19 01:44:00,
2013-03-18 21:45:00,48.0,36.0,27.82,NE,45,0.0,0.0,63,0.00,CLR,SKC,0.54,WeatherDisplay:10.37,2013-03-19 01:45:00,
2013-03-18 21:48:00,48.0,36.0,27.81,North,0,0.0,0.0,63,0.00,CLR,SKC,0.54,WeatherDisplay:10.37,2013-03-19 01:48:00,
2013-03-18 21:49:00,47.8,35.8,27.81,North,0,0.0,0.0,63,0.00,CLR,SKC,0.54,WeatherDisplay:10.37,2013-03-19 01:49:00,
2013-03-18 21:50:00,47.8,35.8,27.81,North,0,0.0,0.0,63,0.00,CLR,SKC,0.54,WeatherDisplay:10.37,2013-03-19 01:50:00,
2013-03-18 21:53:00,48.0,36.0,27.82,NW,315,0.0,0.0,63,0.00,CLR,SKC,0.54,WeatherDisplay:10.37,2013-03-19 01:53:00,
2013-03-18 21:55:00,47.8,35.8,27.82,North,0,0.0,0.0,63,0.00,CLR,SKC,0.54,WeatherDisplay:10.37,2013-03-19 01:55:00,
2013-03-18 21:58:00,47.8,36.2,27.82,North,0,0.0,0.0,64,0.00,CLR,SKC,0.54,WeatherDisplay:10.37,2013-03-19 01:58:00,
2013-03-18 22:00:00,48.0,36.4,27.82,NE,45,0.0,0.0,64,0.00,CLR,SKC,0.54,WeatherDisplay:10.37,2013-03-19 02:00:00,
2013-03-18 22:03:00,48.0,36.4,27.82,NE,45,0.0,0.0,64,0.00,CLR,SKC,0.54,WeatherDisplay:10.37,2013-03-19 02:03:00,
2013-03-18 22:05:00,48.0,36.4,27.83,NE,45,0.0,0.0,64,0.00,CLR,SKC,0.54,WeatherDisplay:10.37,2013-03-19 02:05:00,
2013-03-18 22:07:00,48.0,36.4,27.83,NE,45,0.0,0.0,64,0.00,CLR,SKC,0.54,WeatherDisplay:10.37,2013-03-19 02:07:00,
2013-03-18 22:08:00,47.8,36.2,27.83,NE,45,0.0,0.0,64,0.00,CLR,SKC,0.54,WeatherDisplay:10.37,2013-03-19 02:08:00,
2013-03-18 22:10:00,47.8,36.2,27.83,NE,45,0.0,0.0,64,0.00,CLR,SKC,0.54,WeatherDisplay:10.37,2013-03-19 02:10:00,
2013-03-18 22:12:00,47.8,36.2,27.83,NE,45,0.0,0.0,64,0.00,CLR,SKC,0.54,WeatherDisplay:10.37,2013-03-19 02:12:00,
2013-03-18 22:13:00,47.8,36.2,27.83,NE,45,0.0,0.0,64,0.00,CLR,SKC,0.54,WeatherDisplay:10.37,2013-03-19 02:13:00,
2013-03-18 22:15:00,47.7,36.1,27.83,North,0,0.0,0.0,64,0.00,CLR,SKC,0.54,WeatherDisplay:10.37,2013-03-19 02:15:00,
2013-03-18 22:16:00,47.7,36.1,27.83,North,0,0.0,0.0,64,0.00,CLR,SKC,0.54,WeatherDisplay:10.37,2013-03-19 02:16:00,
2013-03-18 22:17:00,47.5,35.9,27.83,North,0,0.0,0.0,64,0.00,CLR,SKC,0.54,WeatherDisplay:10.37,2013-03-19 02:17:00,
2013-03-18 22:18:00,47.5,35.9,27.83,North,0,0.0,0.0,64,0.00,CLR,SKC,0.54,WeatherDisplay:10.37,2013-03-19 02:18:00,
2013-03-18 22:20:00,47.3,35.7,27.83,NW,315,0.0,0.0,64,0.00,CLR,SKC,0.54,WeatherDisplay:10.37,2013-03-19 02:20:00,
2013-03-18 22:21:00,47.5,35.9,27.82,North,0,0.0,0.0,64,0.00,CLR,SKC,0.54,WeatherDisplay:10.37,2013-03-19 02:21:00,
2013-03-18 22:23:00,47.7,36.1,27.82,SE,135,0.0,0.0,64,0.00,CLR,SKC,0.54,WeatherDisplay:10.37,2013-03-19 02:23:00,
2013-03-18 22:25:00,47.7,36.1,27.82,SE,135,0.0,0.0,64,0.00,CLR,SKC,0.54,WeatherDisplay:10.37,2013-03-19 02:25:00,
2013-03-18 22:26:00,47.7,36.1,27.82,SE,135,0.0,0.0,64,0.00,CLR,SKC,0.54,WeatherDisplay:10.37,2013-03-19 02:26:00,
2013-03-18 22:28:00,47.7,36.1,27.82,NW,315,0.0,0.0,64,0.00,CLR,SKC,0.54,WeatherDisplay:10.37,2013-03-19 02:28:00,
2013-03-18 22:30:00,47.5,35.9,27.82,North,0,0.0,0.0,64,0.00,CLR,SKC,0.54,WeatherDisplay:10.37,2013-03-19 02:30:00,
2013-03-18 22:31:00,47.5,35.9,27.82,North,0,0.0,0.0,64,0.00,CLR,SKC,0.54,WeatherDisplay:10.37,2013-03-19 02:31:00,
2013-03-18 22:33:00,47.3,35.7,27.82,North,0,0.0,0.0,64,0.00,CLR,SKC,0.54,WeatherDisplay:10.37,2013-03-19 02:33:00,
2013-03-18 22:35:00,47.1,35.6,27.82,North,0,0.0,0.0,64,0.00,CLR,SKC,0.54,WeatherDisplay:10.37,2013-03-19 02:35:00,
2013-03-18 22:37:00,47.1,35.6,27.83,North,0,0.0,0.0,64,0.00,CLR,SKC,0.54,WeatherDisplay:10.37,2013-03-19 02:37:00,
2013-03-18 22:38:00,47.1,35.6,27.82,North,0,0.0,0.0,64,0.00,CLR,SKC,0.54,WeatherDisplay:10.37,2013-03-19 02:38:00,
2013-03-18 22:39:00,47.1,35.6,27.82,North,0,0.0,0.0,64,0.00,CLR,SKC,0.54,WeatherDisplay:10.37,2013-03-19 02:39:00,
2013-03-18 22:40:00,47.1,35.6,27.83,NE,45,0.0,0.0,64,0.00,CLR,SKC,0.54,WeatherDisplay:10.37,2013-03-19 02:40:00,
2013-03-18 22:43:00,46.9,35.4,27.83,NE,45,0.0,0.0,64,0.00,CLR,SKC,0.54,WeatherDisplay:10.37,2013-03-19 02:43:00,
2013-03-18 22:44:00,46.9,35.4,27.83,NE,45,0.0,0.0,64,0.00,CLR,SKC,0.54,WeatherDisplay:10.37,2013-03-19 02:44:00,
2013-03-18 22:46:00,46.9,35.4,27.83,NE,45,0.0,0.0,64,0.00,CLR,SKC,0.54,WeatherDisplay:10.37,2013-03-19 02:46:00,
2013-03-18 22:48:00,46.9,35.4,27.83,NE,45,0.0,0.0,64,0.00,CLR,SKC,0.54,WeatherDisplay:10.37,2013-03-19 02:48:00,
2013-03-18 22:49:00,46.8,35.2,27.83,NE,45,0.0,0.0,64,0.00,CLR,SKC,0.54,WeatherDisplay:10.37,2013-03-19 02:49:00,
2013-03-18 22:51:00,46.8,35.2,27.83,NE,45,0.0,0.0,64,0.00,CLR,SKC,0.54,WeatherDisplay:10.37,2013-03-19 02:51:00,
2013-03-18 22:53:00,46.8,35.6,27.83,NE,45,0.0,0.0,65,0.00,CLR,SKC,0.54,WeatherDisplay:10.37,2013-03-19 02:53:00,
2013-03-18 22:54:00,46.8,35.2,27.84,NE,45,0.0,0.0,64,0.00,CLR,SKC,0.54,WeatherDisplay:10.37,2013-03-19 02:54:00,
2013-03-18 22:56:00,46.9,35.8,27.83,NE,45,0.0,0.0,65,0.00,CLR,SKC,0.54,WeatherDisplay:10.37,2013-03-19 02:56:00,
2013-03-18 22:58:00,46.9,35.8,27.84,NE,45,0.0,0.0,65,0.00,CLR,SKC,0.54,WeatherDisplay:10.37,2013-03-19 02:58:00,
2013-03-18 22:59:00,46.9,35.8,27.84,NE,45,0.0,0.0,65,0.00,CLR,SKC,0.54,WeatherDisplay:10.37,2013-03-19 02:59:00,
2013-03-18 23:00:00,46.9,35.8,27.83,NE,45,0.0,0.0,65,0.00,CLR,SKC,0.54,WeatherDisplay:10.37,2013-03-19 03:00:00,
2013-03-18 23:01:00,46.9,35.8,27.83,NE,45,0.0,0.0,65,0.00,CLR,SKC,0.54,WeatherDisplay:10.37,2013-03-19 03:01:00,
2013-03-18 23:03:00,46.9,35.8,27.84,NE,45,0.0,0.0,65,0.00,CLR,SKC,0.54,WeatherDisplay:10.37,2013-03-19 03:03:00,
2013-03-18 23:04:00,46.9,35.8,27.84,NE,45,0.0,0.0,65,0.00,CLR,SKC,0.54,WeatherDisplay:10.37,2013-03-19 03:04:00,
2013-03-18 23:05:00,46.9,35.8,27.84,NE,45,0.0,0.0,65,0.00,CLR,SKC,0.54,WeatherDisplay:10.37,2013-03-19 03:05:00,
2013-03-18 23:07:00,46.9,35.8,27.84,NE,45,0.0,0.0,65,0.00,CLR,SKC,0.54,WeatherDisplay:10.37,2013-03-19 03:07:00,
2013-03-18 23:09:00,46.2,34.7,27.84,NE,45,0.0,0.0,64,0.00,CLR,SKC,0.54,WeatherDisplay:10.37,2013-03-19 03:09:00,
2013-03-18 23:10:00,46.2,34.7,27.85,NE,45,0.0,0.0,64,0.00,CLR,SKC,0.54,WeatherDisplay:10.37,2013-03-19 03:10:00,
2013-03-18 23:12:00,46.0,34.9,27.84,North,0,0.0,0.0,65,0.00,CLR,SKC,0.54,WeatherDisplay:10.37,2013-03-19 03:12:00,
2013-03-18 23:14:00,46.0,34.9,27.84,North,0,0.0,0.0,65,0.00,CLR,SKC,0.54,WeatherDisplay:10.37,2013-03-19 03:14:00,
2013-03-18 23:15:00,46.0,34.9,27.84,North,0,0.0,0.0,65,0.00,CLR,SKC,0.54,WeatherDisplay:10.37,2013-03-19 03:15:00,
2013-03-18 23:18:00,46.4,35.3,27.85,NE,45,0.0,0.0,65,0.00,CLR,SKC,0.54,WeatherDisplay:10.37,2013-03-19 03:18:00,
2013-03-18 23:19:00,46.4,35.3,27.85,North,0,0.0,0.0,65,0.00,CLR,SKC,0.54,WeatherDisplay:10.37,2013-03-19 03:19:00,
2013-03-18 23:20:00,46.4,35.3,27.85,North,0,0.0,0.0,65,0.00,CLR,SKC,0.54,WeatherDisplay:10.37,2013-03-19 03:20:00,
2013-03-18 23:23:00,46.4,35.7,27.85,NE,45,0.0,0.0,66,0.00,CLR,SKC,0.54,WeatherDisplay:10.37,2013-03-19 03:23:00,
2013-03-18 23:24:00,46.4,35.7,27.85,NE,45,0.0,0.0,66,0.00,CLR,SKC,0.54,WeatherDisplay:10.37,2013-03-19 03:24:00,
2013-03-18 23:25:00,46.4,35.7,27.85,NE,45,0.0,0.0,66,0.00,CLR,SKC,0.54,WeatherDisplay:10.37,2013-03-19 03:25:00,
2013-03-18 23:28:00,46.4,35.7,27.85,NE,45,0.0,0.0,66,0.00,CLR,SKC,0.54,WeatherDisplay:10.37,2013-03-19 03:28:00,
2013-03-18 23:29:00,46.4,35.7,27.85,NE,45,0.0,0.0,66,0.00,CLR,SKC,0.54,WeatherDisplay:10.37,2013-03-19 03:29:00,
2013-03-18 23:30:00,46.4,35.7,27.85,NE,45,0.0,0.0,66,0.00,CLR,SKC,0.54,WeatherDisplay:10.37,2013-03-19 03:30:00,
2013-03-18 23:33:00,46.4,35.7,27.85,NE,45,0.0,0.0,66,0.00,CLR,SKC,0.54,WeatherDisplay:10.37,2013-03-19 03:33:00,
2013-03-18 23:34:00,46.4,35.7,27.85,NE,45,0.0,0.0,66,0.00,CLR,SKC,0.54,WeatherDisplay:10.37,2013-03-19 03:34:00,
2013-03-18 23:35:00,46.4,35.7,27.85,NNW,338,0.0,0.0,66,0.00,CLR,SKC,0.54,WeatherDisplay:10.37,2013-03-19 03:35:00,
2013-03-18 23:38:00,46.2,35.5,27.84,North,0,0.0,0.0,66,0.00,CLR,SKC,0.54,WeatherDisplay:10.37,2013-03-19 03:38:00,
2013-03-18 23:39:00,46.2,35.5,27.84,North,0,0.0,0.0,66,0.00,CLR,SKC,0.54,WeatherDisplay:10.37,2013-03-19 03:39:00,
2013-03-18 23:40:00,46.4,35.7,27.84,North,0,0.0,0.0,66,0.00,CLR,SKC,0.54,WeatherDisplay:10.37,2013-03-19 03:40:00,
2013-03-18 23:43:00,46.4,35.7,27.84,North,0,0.0,0.0,66,0.00,CLR,SKC,0.54,WeatherDisplay:10.37,2013-03-19 03:43:00,
2013-03-18 23:44:00,46.4,35.7,27.85,North,0,0.0,0.0,66,0.00,CLR,SKC,0.54,WeatherDisplay:10.37,2013-03-19 03:44:00,
2013-03-18 23:45:00,46.4,35.7,27.84,North,0,0.0,0.0,66,0.00,CLR,SKC,0.54,WeatherDisplay:10.37,2013-03-19 03:45:00,
2013-03-18 23:47:00,46.4,35.7,27.84,North,0,0.0,0.0,66,0.00,CLR,SKC,0.54,WeatherDisplay:10.37,2013-03-19 03:47:00,
2013-03-18 23:48:00,46.4,35.7,27.85,North,0,0.0,0.0,66,0.00,CLR,SKC,0.54,WeatherDisplay:10.37,2013-03-19 03:48:00,
2013-03-18 23:50:00,46.4,35.7,27.85,North,0,0.0,0.0,66,0.00,CLR,SKC,0.54,WeatherDisplay:10.37,2013-03-19 03:50:00,
2013-03-18 23:52:00,46.4,36.0,27.85,NE,45,0.0,0.0,67,0.00,CLR,SKC,0.54,WeatherDisplay:10.37,2013-03-19 03:52:00,
2013-03-18 23:54:00,46.4,36.0,27.85,NE,45,0.0,0.0,67,0.00,CLR,SKC,0.54,WeatherDisplay:10.37,2013-03-19 03:54:00,
2013-03-18 23:55:00,46.4,36.0,27.85,NE,45,0.0,0.0,67,0.00,CLR,SKC,0.54,WeatherDisplay:10.37,2013-03-19 03:55:00,
2013-03-18 23:57:00,46.2,35.5,27.85,NW,315,0.0,0.0,66,0.00,CLR,SKC,0.54,WeatherDisplay:10.37,2013-03-19 03:57:00,
2013-03-18 23:59:00,46.2,35.9,27.86,NW,315,0.0,0.0,67,0.00,CLR,SKC,0.54,WeatherDisplay:10.37,2013-03-19 03:59:00,